Time,TemperatureF,DewpointF,PressureIn,WindDirection,WindDirectionDegrees,WindSpeedMPH,WindSpeedGustMPH,Humidity,HourlyPrecipIn,Conditions,Clouds,dailyrainin,SoftwareType,DateUTC
2013-12-05 00:01:00,24.1,-7.5,29.03,West,273,3.6,4.0,24,0.00,,---,0.00,VWS V14.01,2013-12-05 06:01:00,
2013-12-05 00:02:00,24.1,-7.5,29.03,SW,218,3.1,4.0,24,0.00,,---,0.00,VWS V14.01,2013-12-05 06:02:00,
2013-12-05 00:03:00,24.1,-7.5,29.03,SW,226,5.4,5.4,24,0.00,,---,0.00,VWS V14.01,2013-12-05 06:03:00,
2013-12-05 00:04:00,24.1,-7.5,29.03,NW,322,5.8,6.7,24,0.00,,---,0.00,VWS V14.01,2013-12-05 06:04:00,
2013-12-05 00:06:00,23.9,-7.6,29.03,East,98,2.2,2.7,24,0.00,,---,0.00,VWS V14.01,2013-12-05 06:06:00,
2013-12-05 00:07:00,23.9,-7.6,29.03,SW,232,4.0,4.0,24,0.00,,---,0.00,VWS V14.01,2013-12-05 06:07:00,
2013-12-05 00:08:00,23.9,-7.6,29.03,ENE,61,0.0,3.1,24,0.00,,---,0.00,VWS V14.01,2013-12-05 06:08:00,
2013-12-05 00:09:00,23.9,-7.6,29.03,South,169,3.6,3.6,24,0.00,,---,0.00,VWS V14.01,2013-12-05 06:09:00,
2013-12-05 00:10:00,23.9,-7.6,29.03,SW,218,4.0,4.0,24,0.00,,---,0.00,VWS V14.01,2013-12-05 06:10:00,
2013-12-05 00:11:00,23.9,-7.6,29.03,WNW,296,5.4,5.4,24,0.00,,---,0.00,VWS V14.01,2013-12-05 06:11:00,
2013-12-05 00:12:00,23.9,-7.6,29.03,WSW,249,0.0,5.4,24,0.00,,---,0.00,VWS V14.01,2013-12-05 06:12:00,
2013-12-05 00:13:00,23.9,-7.6,29.03,SW,225,4.0,4.0,24,0.00,,---,0.00,VWS V14.01,2013-12-05 06:13:00,
2013-12-05 00:15:00,23.9,-7.6,29.03,SSW,197,3.1,3.1,24,0.00,,---,0.00,VWS V14.01,2013-12-05 06:15:00,
2013-12-05 00:16:00,23.9,-7.6,29.03,West,280,3.1,4.0,24,0.00,,---,0.00,VWS V14.01,2013-12-05 06:16:00,
2013-12-05 00:17:00,23.7,-7.8,29.03,North,357,3.6,4.0,24,0.00,,---,0.00,VWS V14.01,2013-12-05 06:17:00,
2013-12-05 00:19:00,23.7,-7.8,29.03,North,357,6.3,8.1,24,0.00,,---,0.00,VWS V14.01,2013-12-05 06:19:00,
2013-12-05 00:20:00,23.7,-7.8,29.03,WSW,247,3.1,4.0,24,0.00,,---,0.00,VWS V14.01,2013-12-05 06:20:00,
2013-12-05 00:21:00,23.7,-7.8,29.03,NNW,346,4.9,4.9,24,0.00,,---,0.00,VWS V14.01,2013-12-05 06:21:00,
2013-12-05 00:22:00,23.7,-7.8,29.03,West,277,3.6,5.4,24,0.00,,---,0.00,VWS V14.01,2013-12-05 06:22:00,
2013-12-05 00:24:00,23.5,-7.9,29.03,NW,310,2.7,3.6,24,0.00,,---,0.00,VWS V14.01,2013-12-05 06:24:00,
2013-12-05 00:26:00,23.5,-7.9,29.03,North,357,4.0,4.0,24,0.00,,---,0.00,VWS V14.01,2013-12-05 06:26:00,
2013-12-05 00:27:00,23.5,-7.9,29.03,WNW,286,3.1,5.4,24,0.00,,---,0.00,VWS V14.01,2013-12-05 06:27:00,
2013-12-05 00:28:00,23.5,-7.9,29.03,NNW,335,3.1,5.4,24,0.00,,---,0.00,VWS V14.01,2013-12-05 06:28:00,
2013-12-05 00:29:00,23.5,-7.9,29.03,NNE,19,3.1,3.1,24,0.00,,---,0.00,VWS V14.01,2013-12-05 06:29:00,
2013-12-05 00:31:00,23.4,-8.1,29.03,North,353,2.7,2.7,24,0.00,,---,0.00,VWS V14.01,2013-12-05 06:31:00,
2013-12-05 00:32:00,23.4,-8.1,29.03,WNW,287,0.0,4.0,24,0.00,,---,0.00,VWS V14.01,2013-12-05 06:32:00,
2013-12-05 00:33:00,23.4,-8.1,29.03,WSW,253,2.7,2.7,24,0.00,,---,0.00,VWS V14.01,2013-12-05 06:33:00,
2013-12-05 00:34:00,23.4,-8.1,29.03,NNW,335,2.7,2.7,24,0.00,,---,0.00,VWS V14.01,2013-12-05 06:34:00,
2013-12-05 00:36:00,23.4,-8.1,29.03,NNW,344,4.0,4.0,24,0.00,,---,0.00,VWS V14.01,2013-12-05 06:36:00,
2013-12-05 00:37:00,23.4,-8.1,29.03,North,7,3.6,3.6,24,0.00,,---,0.00,VWS V14.01,2013-12-05 06:37:00,
2013-12-05 00:38:00,23.2,-8.2,29.03,SW,219,3.6,3.6,24,0.00,,---,0.00,VWS V14.01,2013-12-05 06:38:00,
2013-12-05 00:40:00,23.2,-8.2,29.03,WNW,291,0.0,3.1,24,0.00,,---,0.00,VWS V14.01,2013-12-05 06:40:00,
2013-12-05 00:41:00,23.2,-8.2,29.03,WSW,244,3.1,3.1,24,0.00,,---,0.00,VWS V14.01,2013-12-05 06:41:00,
2013-12-05 00:42:00,23.2,-8.2,29.03,NE,41,4.9,5.8,24,0.00,,---,0.00,VWS V14.01,2013-12-05 06:42:00,
2013-12-05 00:43:00,23.2,-8.2,29.03,WNW,285,2.7,6.3,24,0.00,,---,0.00,VWS V14.01,2013-12-05 06:43:00,
2013-12-05 00:45:00,23.0,-7.6,29.03,NNW,329,4.0,8.3,25,0.00,,---,0.00,VWS V14.01,2013-12-05 06:45:00,
2013-12-05 00:46:00,23.0,-7.6,29.03,NNW,331,8.1,8.1,25,0.00,,---,0.00,VWS V14.01,2013-12-05 06:46:00,
2013-12-05 00:47:00,23.0,-7.6,29.03,SSW,209,0.0,8.1,25,0.00,,---,0.00,VWS V14.01,2013-12-05 06:47:00,
2013-12-05 00:48:00,23.0,-7.6,29.03,WSW,242,2.7,4.0,25,0.00,,---,0.00,VWS V14.01,2013-12-05 06:48:00,
2013-12-05 00:50:00,22.8,-7.7,29.03,WSW,240,3.1,3.1,25,0.00,,---,0.00,VWS V14.01,2013-12-05 06:50:00,
2013-12-05 00:51:00,22.8,-7.7,29.03,NW,321,3.1,4.0,25,0.00,,---,0.00,VWS V14.01,2013-12-05 06:51:00,
2013-12-05 00:52:00,22.8,-7.7,29.03,NW,319,3.1,3.1,25,0.00,,---,0.00,VWS V14.01,2013-12-05 06:52:00,
2013-12-05 00:53:00,22.8,-7.7,29.03,NW,320,0.0,3.1,25,0.00,,---,0.00,VWS V14.01,2013-12-05 06:53:00,
2013-12-05 00:55:00,22.8,-7.7,29.06,SW,225,3.1,3.1,25,0.00,,---,0.00,VWS V14.01,2013-12-05 06:55:00,
2013-12-05 00:56:00,22.8,-7.7,29.06,North,9,4.9,5.4,25,0.00,,---,0.00,VWS V14.01,2013-12-05 06:56:00,
2013-12-05 00:57:00,22.8,-7.7,29.06,SW,232,5.4,5.4,25,0.00,,---,0.00,VWS V14.01,2013-12-05 06:57:00,
2013-12-05 00:58:00,22.8,-7.7,29.06,SW,228,4.0,5.4,25,0.00,,---,0.00,VWS V14.01,2013-12-05 06:58:00,
2013-12-05 00:59:00,22.8,-7.7,29.06,WSW,247,3.1,4.0,25,0.00,,---,0.00,VWS V14.01,2013-12-05 06:59:00,
2013-12-05 01:00:00,22.6,-7.9,29.06,North,357,2.7,3.1,25,0.00,,---,0.00,VWS V14.01,2013-12-05 07:00:00,
2013-12-05 01:01:00,22.6,-7.9,29.06,South,176,3.6,4.0,25,0.00,,---,0.00,VWS V14.01,2013-12-05 07:01:00,
2013-12-05 01:02:00,22.6,-7.9,29.06,NE,42,2.2,4.0,25,0.00,,---,0.00,VWS V14.01,2013-12-05 07:02:00,
2013-12-05 01:03:00,22.6,-7.9,29.06,NNE,27,0.0,2.2,25,0.00,,---,0.00,VWS V14.01,2013-12-05 07:03:00,
2013-12-05 01:04:00,22.6,-7.9,29.06,West,262,2.7,2.7,25,0.00,,---,0.00,VWS V14.01,2013-12-05 07:04:00,
2013-12-05 01:05:00,22.6,-7.9,29.06,NNE,16,3.6,3.6,25,0.00,,---,0.00,VWS V14.01,2013-12-05 07:05:00,
2013-12-05 01:06:00,22.5,-8.0,29.06,WNW,290,7.2,8.7,25,0.00,,---,0.00,VWS V14.01,2013-12-05 07:06:00,
2013-12-05 01:08:00,22.5,-8.0,29.06,WSW,248,2.2,2.2,25,0.00,,---,0.00,VWS V14.01,2013-12-05 07:08:00,
2013-12-05 01:09:00,22.5,-8.0,29.06,West,259,2.2,2.2,25,0.00,,---,0.00,VWS V14.01,2013-12-05 07:09:00,
2013-12-05 01:10:00,22.5,-8.0,29.06,SE,125,0.0,3.6,25,0.00,,---,0.00,VWS V14.01,2013-12-05 07:10:00,
2013-12-05 01:12:00,22.3,-8.2,29.06,SW,228,4.9,4.9,25,0.00,,---,0.00,VWS V14.01,2013-12-05 07:12:00,
2013-12-05 01:13:00,22.3,-8.2,29.06,SW,226,3.1,4.9,25,0.00,,---,0.00,VWS V14.01,2013-12-05 07:13:00,
2013-12-05 01:14:00,22.3,-8.2,29.06,West,278,0.0,3.6,25,0.00,,---,0.00,VWS V14.01,2013-12-05 07:14:00,
2013-12-05 01:16:00,22.3,-8.2,29.06,NW,322,2.7,4.5,25,0.00,,---,0.00,VWS V14.01,2013-12-05 07:16:00,
2013-12-05 01:17:00,22.3,-8.2,29.06,North,2,0.0,2.7,25,0.00,,---,0.00,VWS V14.01,2013-12-05 07:17:00,
2013-12-05 01:18:00,22.3,-8.2,29.06,SSW,205,2.7,2.7,25,0.00,,---,0.00,VWS V14.01,2013-12-05 07:18:00,
2013-12-05 01:19:00,22.3,-8.2,29.06,NNE,17,2.7,2.7,25,0.00,,---,0.00,VWS V14.01,2013-12-05 07:19:00,
2013-12-05 01:21:00,22.1,-8.3,29.06,West,274,0.0,0.0,25,0.00,,---,0.00,VWS V14.01,2013-12-05 07:21:00,
2013-12-05 01:22:00,22.1,-8.3,29.06,South,182,3.1,5.4,25,0.00,,---,0.00,VWS V14.01,2013-12-05 07:22:00,
2013-12-05 01:23:00,22.1,-8.3,29.06,WSW,253,4.0,4.0,25,0.00,,---,0.00,VWS V14.01,2013-12-05 07:23:00,
2013-12-05 01:24:00,22.1,-8.3,29.06,ENE,60,2.7,4.0,25,0.00,,---,0.00,VWS V14.01,2013-12-05 07:24:00,
2013-12-05 01:26:00,22.1,-8.3,29.06,WSW,254,5.4,5.4,25,0.00,,---,0.00,VWS V14.01,2013-12-05 07:26:00,
2013-12-05 01:27:00,22.1,-8.3,29.06,South,184,2.7,4.0,25,0.00,,---,0.00,VWS V14.01,2013-12-05 07:27:00,
2013-12-05 01:28:00,22.1,-8.3,29.06,SSW,212,3.6,4.0,25,0.00,,---,0.00,VWS V14.01,2013-12-05 07:28:00,
2013-12-05 01:29:00,22.1,-8.3,29.06,NW,319,2.7,2.7,25,0.00,,---,0.00,VWS V14.01,2013-12-05 07:29:00,
2013-12-05 01:31:00,21.9,-8.5,29.06,SW,226,3.1,3.1,25,0.00,,---,0.00,VWS V14.01,2013-12-05 07:31:00,
2013-12-05 01:32:00,21.9,-8.5,29.06,SW,235,2.7,2.7,25,0.00,,---,0.00,VWS V14.01,2013-12-05 07:32:00,
2013-12-05 01:33:00,21.9,-8.5,29.06,NW,314,4.0,4.0,25,0.00,,---,0.00,VWS V14.01,2013-12-05 07:33:00,
2013-12-05 01:34:00,21.9,-8.5,29.06,East,92,3.1,5.4,25,0.00,,---,0.00,VWS V14.01,2013-12-05 07:34:00,
2013-12-05 01:35:00,21.9,-8.5,29.06,SW,228,2.7,3.1,25,0.00,,---,0.00,VWS V14.01,2013-12-05 07:35:00,
2013-12-05 01:36:00,21.9,-8.5,29.06,WSW,246,2.7,3.1,25,0.00,,---,0.00,VWS V14.01,2013-12-05 07:36:00,
2013-12-05 01:38:00,21.9,-8.5,29.06,SSW,209,3.6,6.3,25,0.00,,---,0.00,VWS V14.01,2013-12-05 07:38:00,
2013-12-05 01:39:00,21.9,-8.5,29.06,NE,47,3.1,3.1,25,0.00,,---,0.00,VWS V14.01,2013-12-05 07:39:00,
2013-12-05 01:40:00,21.9,-8.5,29.06,NE,47,3.1,3.1,25,0.00,,---,0.00,VWS V14.01,2013-12-05 07:40:00,
2013-12-05 01:41:00,21.9,-8.5,29.06,North,353,5.8,5.8,25,0.00,,---,0.00,VWS V14.01,2013-12-05 07:41:00,
2013-12-05 01:43:00,21.9,-8.5,29.06,WNW,293,3.1,4.0,25,0.00,,---,0.00,VWS V14.01,2013-12-05 07:43:00,
2013-12-05 01:44:00,21.7,-8.6,29.06,West,271,4.0,4.0,25,0.00,,---,0.00,VWS V14.01,2013-12-05 07:44:00,
2013-12-05 01:45:00,21.7,-8.6,29.06,West,271,4.0,4.0,25,0.00,,---,0.00,VWS V14.01,2013-12-05 07:45:00,
2013-12-05 01:46:00,21.7,-8.6,29.06,WSW,249,5.4,5.4,25,0.00,,---,0.00,VWS V14.01,2013-12-05 07:46:00,
2013-12-05 01:48:00,21.7,-8.6,29.06,SSW,200,2.2,4.9,25,0.00,,---,0.00,VWS V14.01,2013-12-05 07:48:00,
2013-12-05 01:50:00,21.7,-8.6,29.06,NW,322,6.3,6.3,25,0.00,,---,0.00,VWS V14.01,2013-12-05 07:50:00,
2013-12-05 01:51:00,21.6,-8.8,29.06,North,353,4.0,5.4,25,0.00,,---,0.00,VWS V14.01,2013-12-05 07:51:00,
2013-12-05 01:53:00,21.6,-8.8,29.06,West,270,2.7,4.0,25,0.00,,---,0.00,VWS V14.01,2013-12-05 07:53:00,
2013-12-05 01:54:00,21.6,-8.8,29.06,SSW,200,2.7,4.0,25,0.00,,---,0.00,VWS V14.01,2013-12-05 07:54:00,
2013-12-05 01:55:00,21.6,-8.8,29.09,SSW,209,4.0,4.0,25,0.00,,---,0.00,VWS V14.01,2013-12-05 07:55:00,
2013-12-05 01:56:00,21.6,-8.8,29.09,NNE,15,3.1,3.1,25,0.00,,---,0.00,VWS V14.01,2013-12-05 07:56:00,
2013-12-05 01:58:00,21.6,-8.8,29.09,West,270,3.1,3.1,25,0.00,,---,0.00,VWS V14.01,2013-12-05 07:58:00,
2013-12-05 01:59:00,21.6,-8.8,29.09,WSW,251,2.2,3.1,25,0.00,,---,0.00,VWS V14.01,2013-12-05 07:59:00,
2013-12-05 02:00:00,21.4,-9.0,29.09,North,9,2.7,3.6,25,0.00,,---,0.00,VWS V14.01,2013-12-05 08:00:00,
2013-12-05 02:01:00,21.4,-9.0,29.09,North,7,2.7,5.8,25,0.00,,---,0.00,VWS V14.01,2013-12-05 08:01:00,
2013-12-05 02:02:00,21.4,-9.0,29.09,WSW,241,3.1,4.0,25,0.00,,---,0.00,VWS V14.01,2013-12-05 08:02:00,
2013-12-05 02:03:00,21.2,-9.1,29.09,WSW,257,3.6,3.6,25,0.00,,---,0.00,VWS V14.01,2013-12-05 08:03:00,
2013-12-05 02:04:00,21.4,-9.0,29.09,NNW,327,2.7,2.7,25,0.00,,---,0.00,VWS V14.01,2013-12-05 08:04:00,
2013-12-05 02:05:00,21.4,-9.0,29.09,SW,214,0.0,2.2,25,0.00,,---,0.00,VWS V14.01,2013-12-05 08:05:00,
2013-12-05 02:06:00,21.2,-9.1,29.09,SSW,195,2.2,2.2,25,0.00,,---,0.00,VWS V14.01,2013-12-05 08:06:00,
2013-12-05 02:07:00,21.2,-9.1,29.09,North,357,3.1,3.6,25,0.00,,---,0.00,VWS V14.01,2013-12-05 08:07:00,
2013-12-05 02:08:00,21.2,-9.1,29.09,SSW,203,2.7,2.7,25,0.00,,---,0.00,VWS V14.01,2013-12-05 08:08:00,
2013-12-05 02:09:00,21.2,-9.1,29.09,SSW,203,2.7,2.7,25,0.00,,---,0.00,VWS V14.01,2013-12-05 08:09:00,
2013-12-05 02:11:00,21.2,-9.1,29.09,NNE,21,0.0,2.2,25,0.00,,---,0.00,VWS V14.01,2013-12-05 08:11:00,
2013-12-05 02:12:00,21.2,-9.1,29.09,WNW,293,2.2,3.1,25,0.00,,---,0.00,VWS V14.01,2013-12-05 08:12:00,
2013-12-05 02:14:00,21.0,-9.3,29.09,SW,225,2.7,3.6,25,0.00,,---,0.00,VWS V14.01,2013-12-05 08:14:00,
2013-12-05 02:16:00,21.0,-9.3,29.09,North,0,2.7,2.7,25,0.00,,---,0.00,VWS V14.01,2013-12-05 08:16:00,
2013-12-05 02:17:00,21.0,-9.3,29.09,NNW,345,0.0,0.0,25,0.00,,---,0.00,VWS V14.01,2013-12-05 08:17:00,
2013-12-05 02:19:00,20.8,-9.4,29.09,West,262,0.0,2.7,25,0.00,,---,0.00,VWS V14.01,2013-12-05 08:19:00,
2013-12-05 02:21:00,20.7,-9.6,29.09,SW,231,2.7,3.1,25,0.00,,---,0.00,VWS V14.01,2013-12-05 08:21:00,
2013-12-05 02:22:00,20.7,-9.6,29.09,SW,231,0.0,3.1,25,0.00,,---,0.00,VWS V14.01,2013-12-05 08:22:00,
2013-12-05 02:24:00,20.7,-9.6,29.09,WSW,257,2.2,2.2,25,0.00,,---,0.00,VWS V14.01,2013-12-05 08:24:00,
2013-12-05 02:26:00,20.5,-9.7,29.12,NNW,336,0.0,2.7,25,0.00,,---,0.00,VWS V14.01,2013-12-05 08:26:00,
2013-12-05 02:27:00,20.5,-9.7,29.12,West,259,3.1,3.1,25,0.00,,---,0.00,VWS V14.01,2013-12-05 08:27:00,
2013-12-05 02:29:00,20.3,-9.9,29.12,SW,217,3.1,3.1,25,0.00,,---,0.00,VWS V14.01,2013-12-05 08:29:00,
2013-12-05 02:31:00,20.3,-9.9,29.12,WSW,254,3.1,3.1,25,0.00,,---,0.00,VWS V14.01,2013-12-05 08:31:00,
2013-12-05 02:32:00,20.3,-9.9,29.12,SSW,195,2.7,4.5,25,0.00,,---,0.00,VWS V14.01,2013-12-05 08:32:00,
2013-12-05 02:33:00,20.3,-9.9,29.12,South,187,0.0,4.5,25,0.00,,---,0.00,VWS V14.01,2013-12-05 08:33:00,
2013-12-05 02:34:00,20.3,-9.9,29.12,NNE,17,3.1,3.1,25,0.00,,---,0.00,VWS V14.01,2013-12-05 08:34:00,
2013-12-05 02:36:00,20.1,-10.1,29.12,SW,218,0.0,5.4,25,0.00,,---,0.00,VWS V14.01,2013-12-05 08:36:00,
2013-12-05 02:38:00,20.1,-10.1,29.12,North,357,3.6,3.6,25,0.00,,---,0.00,VWS V14.01,2013-12-05 08:38:00,
2013-12-05 02:39:00,20.1,-10.1,29.12,West,267,0.0,3.6,25,0.00,,---,0.00,VWS V14.01,2013-12-05 08:39:00,
2013-12-05 02:40:00,20.1,-10.1,29.12,West,267,0.0,3.6,25,0.00,,---,0.00,VWS V14.01,2013-12-05 08:40:00,
2013-12-05 02:41:00,20.1,-10.1,29.12,East,83,3.1,4.9,25,0.00,,---,0.00,VWS V14.01,2013-12-05 08:41:00,
2013-12-05 02:42:00,20.1,-10.1,29.12,NW,317,5.8,5.8,25,0.00,,---,0.00,VWS V14.01,2013-12-05 08:42:00,
2013-12-05 02:43:00,20.1,-10.1,29.12,SE,142,2.2,5.8,25,0.00,,---,0.00,VWS V14.01,2013-12-05 08:43:00,
2013-12-05 02:44:00,20.1,-10.1,29.12,NE,37,4.0,10.5,25,0.00,,---,0.00,VWS V14.01,2013-12-05 08:44:00,
2013-12-05 02:45:00,20.1,-10.1,29.12,WNW,299,2.2,4.0,25,0.00,,---,0.00,VWS V14.01,2013-12-05 08:45:00,
2013-12-05 02:47:00,20.1,-10.1,29.12,West,266,4.0,4.0,25,0.00,,---,0.00,VWS V14.01,2013-12-05 08:47:00,
2013-12-05 02:48:00,20.1,-10.1,29.12,WNW,291,7.2,7.2,25,0.00,,---,0.00,VWS V14.01,2013-12-05 08:48:00,
2013-12-05 02:49:00,20.1,-10.1,29.12,NW,308,2.7,5.8,25,0.00,,---,0.00,VWS V14.01,2013-12-05 08:49:00,
2013-12-05 02:50:00,20.1,-10.1,29.12,NNW,336,0.0,3.1,25,0.00,,---,0.00,VWS V14.01,2013-12-05 08:50:00,
2013-12-05 02:52:00,20.1,-10.1,29.12,North,11,2.7,3.1,25,0.00,,---,0.00,VWS V14.01,2013-12-05 08:52:00,
2013-12-05 02:53:00,20.1,-10.1,29.12,ENE,59,2.7,6.3,25,0.00,,---,0.00,VWS V14.01,2013-12-05 08:53:00,
2013-12-05 02:54:00,20.1,-10.1,29.12,North,353,5.8,5.8,25,0.00,,---,0.00,VWS V14.01,2013-12-05 08:54:00,
2013-12-05 02:55:00,20.1,-10.1,29.12,North,0,3.6,5.8,25,0.00,,---,0.00,VWS V14.01,2013-12-05 08:55:00,
2013-12-05 02:56:00,20.1,-10.1,29.12,North,357,2.7,5.8,25,0.00,,---,0.00,VWS V14.01,2013-12-05 08:56:00,
2013-12-05 02:57:00,20.1,-10.1,29.12,WSW,248,3.6,6.3,25,0.00,,---,0.00,VWS V14.01,2013-12-05 08:57:00,
2013-12-05 02:58:00,20.1,-10.1,29.12,NW,312,4.5,4.5,25,0.00,,---,0.00,VWS V14.01,2013-12-05 08:58:00,
2013-12-05 02:59:00,20.1,-10.1,29.12,West,275,7.6,7.6,25,0.00,,---,0.00,VWS V14.01,2013-12-05 08:59:00,
2013-12-05 03:00:00,20.1,-10.1,29.12,NNW,346,3.6,3.6,25,0.00,,---,0.00,VWS V14.01,2013-12-05 09:00:00,
2013-12-05 03:01:00,20.1,-10.1,29.12,ESE,114,3.6,4.0,25,0.00,,---,0.00,VWS V14.01,2013-12-05 09:01:00,
2013-12-05 03:02:00,20.1,-10.1,29.12,South,174,4.0,4.9,25,0.00,,---,0.00,VWS V14.01,2013-12-05 09:02:00,
2013-12-05 03:03:00,20.1,-10.1,29.12,North,0,4.0,4.0,25,0.00,,---,0.00,VWS V14.01,2013-12-05 09:03:00,
2013-12-05 03:04:00,20.1,-10.1,29.12,SSW,199,2.7,4.0,25,0.00,,---,0.00,VWS V14.01,2013-12-05 09:04:00,
2013-12-05 03:05:00,20.1,-10.1,29.12,SSW,207,7.6,7.6,25,0.00,,---,0.00,VWS V14.01,2013-12-05 09:05:00,
2013-12-05 03:06:00,20.1,-10.1,29.12,WSW,245,4.0,5.4,25,0.00,,---,0.00,VWS V14.01,2013-12-05 09:06:00,
2013-12-05 03:07:00,20.1,-10.1,29.12,North,353,3.6,5.4,25,0.00,,---,0.00,VWS V14.01,2013-12-05 09:07:00,
2013-12-05 03:08:00,20.1,-10.1,29.12,North,353,3.6,5.4,25,0.00,,---,0.00,VWS V14.01,2013-12-05 09:08:00,
2013-12-05 03:09:00,20.1,-10.1,29.12,SW,217,3.6,4.9,25,0.00,,---,0.00,VWS V14.01,2013-12-05 09:09:00,
2013-12-05 03:10:00,20.1,-10.1,29.12,WSW,250,2.7,3.1,25,0.00,,---,0.00,VWS V14.01,2013-12-05 09:10:00,
2013-12-05 03:12:00,20.1,-10.1,29.12,North,11,2.7,3.6,25,0.00,,---,0.00,VWS V14.01,2013-12-05 09:12:00,
2013-12-05 03:13:00,20.1,-10.1,29.12,WNW,292,0.0,2.7,25,0.00,,---,0.00,VWS V14.01,2013-12-05 09:13:00,
2013-12-05 03:14:00,20.1,-10.1,29.12,North,8,4.5,8.7,25,0.00,,---,0.00,VWS V14.01,2013-12-05 09:14:00,
2013-12-05 03:15:00,20.1,-10.1,29.12,WNW,286,0.0,2.7,25,0.00,,---,0.00,VWS V14.01,2013-12-05 09:15:00,
2013-12-05 03:17:00,20.1,-10.1,29.12,North,357,7.2,7.2,25,0.00,,---,0.00,VWS V14.01,2013-12-05 09:17:00,
2013-12-05 03:18:00,19.9,-10.2,29.12,NNE,18,0.0,4.0,25,0.00,,---,0.00,VWS V14.01,2013-12-05 09:18:00,
2013-12-05 03:19:00,19.9,-10.2,29.12,WSW,240,4.9,4.9,25,0.00,,---,0.00,VWS V14.01,2013-12-05 09:19:00,
2013-12-05 03:20:00,19.9,-10.2,29.12,North,357,3.1,3.6,25,0.00,,---,0.00,VWS V14.01,2013-12-05 09:20:00,
2013-12-05 03:22:00,19.9,-10.2,29.12,NW,318,4.0,4.0,25,0.00,,---,0.00,VWS V14.01,2013-12-05 09:22:00,
2013-12-05 03:23:00,19.9,-10.2,29.12,North,2,4.0,5.4,25,0.00,,---,0.00,VWS V14.01,2013-12-05 09:23:00,
2013-12-05 03:24:00,19.9,-10.2,29.12,WSW,246,3.6,3.6,25,0.00,,---,0.00,VWS V14.01,2013-12-05 09:24:00,
2013-12-05 03:25:00,19.9,-10.2,29.12,North,357,5.4,5.4,25,0.00,,---,0.00,VWS V14.01,2013-12-05 09:25:00,
2013-12-05 03:27:00,19.9,-10.2,29.12,NW,319,2.7,8.3,25,0.00,,---,0.00,VWS V14.01,2013-12-05 09:27:00,
2013-12-05 03:28:00,19.8,-10.4,29.12,NW,317,4.0,4.0,25,0.00,,---,0.00,VWS V14.01,2013-12-05 09:28:00,
2013-12-05 03:29:00,19.8,-10.4,29.12,North,353,4.9,4.9,25,0.00,,---,0.00,VWS V14.01,2013-12-05 09:29:00,
2013-12-05 03:30:00,19.8,-10.4,29.12,NNE,24,3.1,4.9,25,0.00,,---,0.00,VWS V14.01,2013-12-05 09:30:00,
2013-12-05 03:32:00,19.8,-10.4,29.12,WNW,290,5.8,5.8,25,0.00,,---,0.00,VWS V14.01,2013-12-05 09:32:00,
2013-12-05 03:33:00,19.8,-10.4,29.12,NE,50,2.2,3.1,25,0.00,,---,0.00,VWS V14.01,2013-12-05 09:33:00,
2013-12-05 03:34:00,19.8,-10.4,29.12,North,10,2.7,3.1,25,0.00,,---,0.00,VWS V14.01,2013-12-05 09:34:00,
2013-12-05 03:35:00,19.8,-10.4,29.12,NW,311,3.6,5.8,25,0.00,,---,0.00,VWS V14.01,2013-12-05 09:35:00,
2013-12-05 03:37:00,19.8,-10.4,29.12,NNW,342,6.7,8.7,25,0.00,,---,0.00,VWS V14.01,2013-12-05 09:37:00,
2013-12-05 03:38:00,19.8,-10.4,29.12,NNW,340,5.4,7.6,25,0.00,,---,0.00,VWS V14.01,2013-12-05 09:38:00,
2013-12-05 03:39:00,19.8,-10.4,29.12,East,83,2.2,7.6,25,0.00,,---,0.00,VWS V14.01,2013-12-05 09:39:00,
2013-12-05 03:40:00,19.8,-10.4,29.12,WNW,288,3.1,8.1,25,0.00,,---,0.00,VWS V14.01,2013-12-05 09:40:00,
2013-12-05 03:43:00,19.8,-10.4,29.12,SSW,204,2.7,3.1,25,0.00,,---,0.00,VWS V14.01,2013-12-05 09:43:00,
2013-12-05 03:44:00,19.8,-10.4,29.12,South,181,0.0,0.0,25,0.00,,---,0.00,VWS V14.01,2013-12-05 09:44:00,
2013-12-05 03:45:00,19.8,-10.4,29.12,WNW,294,2.7,3.1,25,0.00,,---,0.00,VWS V14.01,2013-12-05 09:45:00,
2013-12-05 03:46:00,19.8,-10.4,29.12,West,259,2.2,2.2,25,0.00,,---,0.00,VWS V14.01,2013-12-05 09:46:00,
2013-12-05 03:48:00,19.8,-10.4,29.12,West,272,3.1,3.1,25,0.00,,---,0.00,VWS V14.01,2013-12-05 09:48:00,
2013-12-05 03:49:00,19.8,-10.4,29.12,WSW,245,0.0,4.9,25,0.00,,---,0.00,VWS V14.01,2013-12-05 09:49:00,
2013-12-05 03:50:00,19.8,-10.4,29.12,NW,305,0.0,0.0,25,0.00,,---,0.00,VWS V14.01,2013-12-05 09:50:00,
2013-12-05 03:51:00,19.8,-10.4,29.12,WNW,300,3.1,4.9,25,0.00,,---,0.00,VWS V14.01,2013-12-05 09:51:00,
2013-12-05 03:53:00,19.8,-10.4,29.12,North,0,0.0,2.7,25,0.00,,---,0.00,VWS V14.01,2013-12-05 09:53:00,
2013-12-05 03:54:00,19.8,-10.4,29.12,NE,55,0.0,3.1,25,0.00,,---,0.00,VWS V14.01,2013-12-05 09:54:00,
2013-12-05 03:55:00,19.8,-10.4,29.12,North,4,5.4,5.4,25,0.00,,---,0.00,VWS V14.01,2013-12-05 09:55:00,
2013-12-05 03:56:00,19.8,-10.4,29.12,NNE,13,2.7,5.4,25,0.00,,---,0.00,VWS V14.01,2013-12-05 09:56:00,
2013-12-05 03:58:00,19.8,-10.4,29.12,WNW,300,2.7,3.1,25,0.00,,---,0.00,VWS V14.01,2013-12-05 09:58:00,
2013-12-05 03:59:00,19.8,-10.4,29.12,WNW,300,2.7,3.1,25,0.00,,---,0.00,VWS V14.01,2013-12-05 09:59:00,
2013-12-05 04:00:00,19.8,-10.4,29.12,North,0,0.0,0.0,25,0.00,,---,0.00,VWS V14.01,2013-12-05 10:00:00,
2013-12-05 04:01:00,19.8,-10.4,29.12,North,357,0.0,0.0,25,0.00,,---,0.00,VWS V14.01,2013-12-05 10:01:00,
2013-12-05 04:04:00,19.8,-10.4,29.12,SW,233,2.7,3.6,25,0.00,,---,0.00,VWS V14.01,2013-12-05 10:04:00,
2013-12-05 04:05:00,19.8,-10.4,29.12,NNW,330,0.0,3.1,25,0.00,,---,0.00,VWS V14.01,2013-12-05 10:05:00,
2013-12-05 04:06:00,19.9,-10.2,29.12,WSW,244,2.7,2.7,25,0.00,,---,0.00,VWS V14.01,2013-12-05 10:06:00,
2013-12-05 04:09:00,19.9,-10.2,29.12,West,260,3.1,3.1,25,0.00,,---,0.00,VWS V14.01,2013-12-05 10:09:00,
2013-12-05 04:10:00,19.9,-10.2,29.12,SSW,209,3.1,3.1,25,0.00,,---,0.00,VWS V14.01,2013-12-05 10:10:00,
2013-12-05 04:11:00,19.9,-10.2,29.12,North,357,2.7,2.7,25,0.00,,---,0.00,VWS V14.01,2013-12-05 10:11:00,
2013-12-05 04:14:00,19.9,-10.2,29.12,NW,314,3.1,3.1,25,0.00,,---,0.00,VWS V14.01,2013-12-05 10:14:00,
2013-12-05 04:15:00,19.9,-10.2,29.12,WNW,285,3.1,3.1,25,0.00,,---,0.00,VWS V14.01,2013-12-05 10:15:00,
2013-12-05 04:16:00,19.9,-10.2,29.12,West,267,0.0,0.0,25,0.00,,---,0.00,VWS V14.01,2013-12-05 10:16:00,
2013-12-05 04:17:00,19.9,-10.2,29.12,West,281,3.6,3.6,25,0.00,,---,0.00,VWS V14.01,2013-12-05 10:17:00,
2013-12-05 04:19:00,19.9,-10.2,29.12,NNE,25,0.0,0.0,25,0.00,,---,0.00,VWS V14.01,2013-12-05 10:19:00,
2013-12-05 04:21:00,19.9,-10.2,29.12,NNE,27,0.0,3.1,25,0.00,,---,0.00,VWS V14.01,2013-12-05 10:21:00,
2013-12-05 04:22:00,19.9,-10.2,29.12,North,0,4.0,4.0,25,0.00,,---,0.00,VWS V14.01,2013-12-05 10:22:00,
2013-12-05 04:24:00,20.1,-10.1,29.12,North,353,3.1,7.6,25,0.00,,---,0.00,VWS V14.01,2013-12-05 10:24:00,
2013-12-05 04:25:00,20.1,-10.1,29.12,North,9,2.7,7.6,25,0.00,,---,0.00,VWS V14.01,2013-12-05 10:25:00,
2013-12-05 04:26:00,20.1,-10.1,29.15,NW,304,5.4,5.4,25,0.00,,---,0.00,VWS V14.01,2013-12-05 10:26:00,
2013-12-05 04:27:00,20.1,-10.1,29.15,NNW,329,3.1,5.4,25,0.00,,---,0.00,VWS V14.01,2013-12-05 10:27:00,
2013-12-05 04:29:00,20.1,-10.1,29.15,WNW,293,3.1,3.1,25,0.00,,---,0.00,VWS V14.01,2013-12-05 10:29:00,
2013-12-05 04:30:00,20.1,-10.1,29.15,NW,315,7.6,7.6,25,0.00,,---,0.00,VWS V14.01,2013-12-05 10:30:00,
2013-12-05 04:31:00,20.1,-10.1,29.15,NNW,348,4.9,7.6,25,0.00,,---,0.00,VWS V14.01,2013-12-05 10:31:00,
2013-12-05 04:32:00,20.1,-10.1,29.15,NNW,341,3.6,7.6,25,0.00,,---,0.00,VWS V14.01,2013-12-05 10:32:00,
2013-12-05 04:34:00,20.1,-10.1,29.15,SW,215,3.1,5.8,25,0.00,,---,0.00,VWS V14.01,2013-12-05 10:34:00,
2013-12-05 04:35:00,20.1,-10.1,29.15,North,353,2.2,5.8,25,0.00,,---,0.00,VWS V14.01,2013-12-05 10:35:00,
2013-12-05 04:36:00,20.1,-10.1,29.15,NW,313,5.8,6.3,25,0.00,,---,0.00,VWS V14.01,2013-12-05 10:36:00,
2013-12-05 04:37:00,20.1,-10.1,29.15,NNE,26,2.7,6.3,25,0.00,,---,0.00,VWS V14.01,2013-12-05 10:37:00,
2013-12-05 04:39:00,20.1,-10.1,29.15,NE,49,2.2,4.0,25,0.00,,---,0.00,VWS V14.01,2013-12-05 10:39:00,
2013-12-05 04:40:00,20.1,-10.1,29.15,NNE,24,2.7,4.0,25,0.00,,---,0.00,VWS V14.01,2013-12-05 10:40:00,
2013-12-05 04:41:00,20.1,-10.1,29.15,NW,305,3.1,5.8,25,0.00,,---,0.00,VWS V14.01,2013-12-05 10:41:00,
2013-12-05 04:42:00,20.1,-10.1,29.15,NNE,20,3.6,3.6,25,0.00,,---,0.00,VWS V14.01,2013-12-05 10:42:00,
2013-12-05 04:45:00,19.9,-10.2,29.15,North,7,5.4,7.6,25,0.00,,---,0.00,VWS V14.01,2013-12-05 10:45:00,
2013-12-05 04:46:00,19.9,-10.2,29.15,NNE,16,2.7,3.1,25,0.00,,---,0.00,VWS V14.01,2013-12-05 10:46:00,
2013-12-05 04:47:00,19.9,-10.2,29.15,NNW,343,3.1,3.1,25,0.00,,---,0.00,VWS V14.01,2013-12-05 10:47:00,
2013-12-05 04:48:00,19.9,-10.2,29.15,NNW,340,7.2,9.6,25,0.00,,---,0.00,VWS V14.01,2013-12-05 10:48:00,
2013-12-05 04:50:00,19.9,-10.2,29.15,North,353,4.9,4.9,25,0.00,,---,0.00,VWS V14.01,2013-12-05 10:50:00,
2013-12-05 04:51:00,19.9,-10.2,29.15,WNW,286,5.4,5.4,25,0.00,,---,0.00,VWS V14.01,2013-12-05 10:51:00,
2013-12-05 04:52:00,19.9,-10.2,29.15,North,0,3.6,3.6,25,0.00,,---,0.00,VWS V14.01,2013-12-05 10:52:00,
2013-12-05 04:53:00,19.9,-10.2,29.15,SE,133,2.7,2.7,25,0.00,,---,0.00,VWS V14.01,2013-12-05 10:53:00,
2013-12-05 04:55:00,19.9,-10.2,29.15,North,9,4.0,7.6,25,0.00,,---,0.00,VWS V14.01,2013-12-05 10:55:00,
2013-12-05 04:56:00,19.9,-10.2,29.15,North,353,4.5,4.5,25,0.00,,---,0.00,VWS V14.01,2013-12-05 10:56:00,
2013-12-05 04:57:00,19.9,-10.2,29.15,WNW,297,7.6,7.6,25,0.00,,---,0.00,VWS V14.01,2013-12-05 10:57:00,
2013-12-05 04:58:00,19.9,-10.2,29.15,WSW,247,5.4,5.4,25,0.00,,---,0.00,VWS V14.01,2013-12-05 10:58:00,
2013-12-05 05:00:00,19.9,-10.2,29.15,SW,234,2.7,4.9,25,0.00,,---,0.00,VWS V14.01,2013-12-05 11:00:00,
2013-12-05 05:01:00,19.9,-10.2,29.15,NW,308,2.7,4.9,25,0.00,,---,0.00,VWS V14.01,2013-12-05 11:01:00,
2013-12-05 05:02:00,19.9,-10.2,29.15,NNW,330,4.0,4.0,25,0.00,,---,0.00,VWS V14.01,2013-12-05 11:02:00,
2013-12-05 05:03:00,19.8,-10.4,29.15,NNW,339,3.1,3.1,25,0.00,,---,0.00,VWS V14.01,2013-12-05 11:03:00,
2013-12-05 05:05:00,19.8,-10.4,29.15,NNW,340,4.0,8.1,25,0.00,,---,0.00,VWS V14.01,2013-12-05 11:05:00,
2013-12-05 05:06:00,19.8,-10.4,29.15,NNW,333,3.6,4.5,25,0.00,,---,0.00,VWS V14.01,2013-12-05 11:06:00,
2013-12-05 05:07:00,19.8,-10.4,29.15,NW,305,4.0,10.5,25,0.00,,---,0.00,VWS V14.01,2013-12-05 11:07:00,
2013-12-05 05:08:00,19.8,-10.4,29.15,WNW,295,5.4,5.4,25,0.00,,---,0.00,VWS V14.01,2013-12-05 11:08:00,
2013-12-05 05:10:00,19.8,-10.4,29.15,NNE,33,2.7,4.0,25,0.00,,---,0.00,VWS V14.01,2013-12-05 11:10:00,
2013-12-05 05:11:00,19.8,-10.4,29.15,WNW,300,3.1,3.1,25,0.00,,---,0.00,VWS V14.01,2013-12-05 11:11:00,
2013-12-05 05:12:00,19.8,-10.4,29.15,WSW,251,5.8,7.2,25,0.00,,---,0.00,VWS V14.01,2013-12-05 11:12:00,
2013-12-05 05:13:00,19.8,-10.4,29.15,NNW,335,3.1,4.0,25,0.00,,---,0.00,VWS V14.01,2013-12-05 11:13:00,
2013-12-05 05:15:00,19.8,-10.4,29.15,West,262,2.7,3.1,25,0.00,,---,0.00,VWS V14.01,2013-12-05 11:15:00,
2013-12-05 05:17:00,19.8,-10.4,29.15,North,357,4.0,4.5,25,0.00,,---,0.00,VWS V14.01,2013-12-05 11:17:00,
2013-12-05 05:18:00,19.8,-10.4,29.15,NNW,336,3.1,3.1,25,0.00,,---,0.00,VWS V14.01,2013-12-05 11:18:00,
2013-12-05 05:21:00,19.8,-10.4,29.15,NNW,331,3.1,3.1,25,0.00,,---,0.00,VWS V14.01,2013-12-05 11:21:00,
2013-12-05 05:22:00,19.8,-10.4,29.15,North,0,2.2,2.2,25,0.00,,---,0.00,VWS V14.01,2013-12-05 11:22:00,
2013-12-05 05:23:00,19.8,-10.4,29.15,North,353,6.3,6.3,25,0.00,,---,0.00,VWS V14.01,2013-12-05 11:23:00,
2013-12-05 05:25:00,19.8,-10.4,29.15,NE,35,3.6,5.8,25,0.00,,---,0.00,VWS V14.01,2013-12-05 11:25:00,
2013-12-05 05:26:00,19.6,-10.5,29.15,NW,312,8.1,8.1,25,0.00,,---,0.00,VWS V14.01,2013-12-05 11:26:00,
2013-12-05 05:27:00,19.6,-10.5,29.15,NW,326,9.2,9.2,25,0.00,,---,0.00,VWS V14.01,2013-12-05 11:27:00,
2013-12-05 05:28:00,19.6,-10.5,29.15,WNW,291,5.8,9.2,25,0.00,,---,0.00,VWS V14.01,2013-12-05 11:28:00,
2013-12-05 05:30:00,19.6,-10.5,29.15,SW,223,2.7,3.6,25,0.00,,---,0.00,VWS V14.01,2013-12-05 11:30:00,
2013-12-05 05:31:00,19.6,-10.5,29.15,North,357,2.2,7.6,25,0.00,,---,0.00,VWS V14.01,2013-12-05 11:31:00,
2013-12-05 05:32:00,19.6,-10.5,29.15,NW,307,2.7,5.4,25,0.00,,---,0.00,VWS V14.01,2013-12-05 11:32:00,
2013-12-05 05:33:00,19.6,-10.5,29.15,North,1,3.6,5.4,25,0.00,,---,0.00,VWS V14.01,2013-12-05 11:33:00,
2013-12-05 05:34:00,19.6,-10.5,29.15,North,357,2.2,3.6,25,0.00,,---,0.00,VWS V14.01,2013-12-05 11:34:00,
2013-12-05 05:35:00,19.6,-10.5,29.15,NNE,28,2.7,5.8,25,0.00,,---,0.00,VWS V14.01,2013-12-05 11:35:00,
2013-12-05 05:36:00,19.6,-10.5,29.15,NNW,342,3.1,3.1,25,0.00,,---,0.00,VWS V14.01,2013-12-05 11:36:00,
2013-12-05 05:37:00,19.6,-10.5,29.15,WNW,294,3.1,3.1,25,0.00,,---,0.00,VWS V14.01,2013-12-05 11:37:00,
2013-12-05 05:38:00,19.6,-10.5,29.15,WNW,282,4.0,4.9,25,0.00,,---,0.00,VWS V14.01,2013-12-05 11:38:00,
2013-12-05 05:39:00,19.6,-10.5,29.15,SW,234,3.1,4.0,25,0.00,,---,0.00,VWS V14.01,2013-12-05 11:39:00,
2013-12-05 05:40:00,19.6,-10.5,29.15,WNW,290,3.1,7.6,25,0.00,,---,0.00,VWS V14.01,2013-12-05 11:40:00,
2013-12-05 05:41:00,19.6,-10.5,29.15,SSW,213,3.1,3.1,25,0.00,,---,0.00,VWS V14.01,2013-12-05 11:41:00,
2013-12-05 05:42:00,19.6,-10.5,29.15,NW,323,0.0,4.0,25,0.00,,---,0.00,VWS V14.01,2013-12-05 11:42:00,
2013-12-05 05:43:00,19.6,-10.5,29.15,North,357,2.7,4.0,25,0.00,,---,0.00,VWS V14.01,2013-12-05 11:43:00,
2013-12-05 05:44:00,19.6,-10.5,29.15,North,357,3.6,3.6,25,0.00,,---,0.00,VWS V14.01,2013-12-05 11:44:00,
2013-12-05 05:46:00,19.6,-10.5,29.15,NNE,17,2.7,4.0,25,0.00,,---,0.00,VWS V14.01,2013-12-05 11:46:00,
2013-12-05 05:47:00,19.6,-10.5,29.15,North,357,2.7,2.7,25,0.00,,---,0.00,VWS V14.01,2013-12-05 11:47:00,
2013-12-05 05:48:00,19.6,-10.5,29.15,NNW,328,2.2,4.9,25,0.00,,---,0.00,VWS V14.01,2013-12-05 11:48:00,
2013-12-05 05:49:00,19.4,-10.7,29.15,NNW,329,3.6,3.6,25,0.00,,---,0.00,VWS V14.01,2013-12-05 11:49:00,
2013-12-05 05:51:00,19.4,-10.7,29.15,NNW,329,0.0,0.0,25,0.00,,---,0.00,VWS V14.01,2013-12-05 11:51:00,
2013-12-05 05:52:00,19.4,-10.7,29.15,North,1,3.1,3.1,25,0.00,,---,0.00,VWS V14.01,2013-12-05 11:52:00,
2013-12-05 05:53:00,19.4,-10.7,29.15,NNW,343,2.7,4.0,25,0.00,,---,0.00,VWS V14.01,2013-12-05 11:53:00,
2013-12-05 05:55:00,19.4,-10.7,29.18,North,350,3.1,3.1,25,0.00,,---,0.00,VWS V14.01,2013-12-05 11:55:00,
2013-12-05 05:56:00,19.4,-10.7,29.18,WSW,249,2.7,5.4,25,0.00,,---,0.00,VWS V14.01,2013-12-05 11:56:00,
2013-12-05 05:58:00,19.4,-10.7,29.18,NW,317,4.9,4.9,25,0.00,,---,0.00,VWS V14.01,2013-12-05 11:58:00,
2013-12-05 06:00:00,19.4,-10.7,29.18,NNW,337,5.4,8.7,25,0.00,,---,0.00,VWS V14.01,2013-12-05 12:00:00,
2013-12-05 06:01:00,19.4,-10.7,29.18,WNW,288,5.4,5.4,25,0.00,,---,0.00,VWS V14.01,2013-12-05 12:01:00,
2013-12-05 06:03:00,19.4,-10.7,29.18,NNE,16,4.0,4.0,25,0.00,,---,0.00,VWS V14.01,2013-12-05 12:03:00,
2013-12-05 06:04:00,19.4,-10.7,29.18,North,1,2.2,5.8,25,0.00,,---,0.00,VWS V14.01,2013-12-05 12:04:00,
2013-12-05 06:05:00,19.4,-10.7,29.18,NNW,341,4.9,4.9,25,0.00,,---,0.00,VWS V14.01,2013-12-05 12:05:00,
2013-12-05 06:06:00,19.4,-10.7,29.18,North,357,4.0,4.0,25,0.00,,---,0.00,VWS V14.01,2013-12-05 12:06:00,
2013-12-05 06:08:00,19.2,-10.8,29.18,North,357,2.7,2.7,25,0.00,,---,0.00,VWS V14.01,2013-12-05 12:08:00,
2013-12-05 06:09:00,19.2,-10.8,29.18,ENE,70,3.1,5.4,25,0.00,,---,0.00,VWS V14.01,2013-12-05 12:09:00,
2013-12-05 06:10:00,19.2,-10.8,29.18,NW,305,3.6,5.4,25,0.00,,---,0.00,VWS V14.01,2013-12-05 12:10:00,
2013-12-05 06:11:00,19.2,-10.8,29.18,North,0,3.1,3.1,25,0.00,,---,0.00,VWS V14.01,2013-12-05 12:11:00,
2013-12-05 06:13:00,19.2,-10.8,29.18,WNW,290,3.1,3.1,25,0.00,,---,0.00,VWS V14.01,2013-12-05 12:13:00,
2013-12-05 06:14:00,19.2,-10.8,29.18,NW,306,7.6,7.6,25,0.00,,---,0.00,VWS V14.01,2013-12-05 12:14:00,
2013-12-05 06:15:00,19.2,-10.8,29.18,NNW,344,3.6,3.6,25,0.00,,---,0.00,VWS V14.01,2013-12-05 12:15:00,
2013-12-05 06:16:00,19.2,-10.8,29.18,NNE,25,2.2,4.0,25,0.00,,---,0.00,VWS V14.01,2013-12-05 12:16:00,
2013-12-05 06:18:00,19.2,-10.8,29.18,NW,313,4.0,4.0,25,0.00,,---,0.00,VWS V14.01,2013-12-05 12:18:00,
2013-12-05 06:19:00,19.2,-10.8,29.18,NW,310,2.2,4.0,25,0.00,,---,0.00,VWS V14.01,2013-12-05 12:19:00,
2013-12-05 06:21:00,19.2,-10.8,29.18,West,267,2.2,5.8,25,0.00,,---,0.00,VWS V14.01,2013-12-05 12:21:00,
2013-12-05 06:22:00,19.2,-10.8,29.18,SW,224,4.0,4.0,25,0.00,,---,0.00,VWS V14.01,2013-12-05 12:22:00,
2013-12-05 06:23:00,19.2,-10.8,29.18,NNE,29,0.0,3.6,25,0.00,,---,0.00,VWS V14.01,2013-12-05 12:23:00,
2013-12-05 06:24:00,19.2,-10.8,29.18,NNW,335,2.7,3.6,25,0.00,,---,0.00,VWS V14.01,2013-12-05 12:24:00,
2013-12-05 06:26:00,19.2,-10.8,29.21,North,0,3.1,5.4,25,0.00,,---,0.00,VWS V14.01,2013-12-05 12:26:00,
2013-12-05 06:27:00,19.2,-10.8,29.21,NNE,16,2.7,7.6,25,0.00,,---,0.00,VWS V14.01,2013-12-05 12:27:00,
2013-12-05 06:28:00,19.2,-10.8,29.21,North,5,3.1,4.0,25,0.00,,---,0.00,VWS V14.01,2013-12-05 12:28:00,
2013-12-05 06:29:00,19.2,-10.8,29.21,NNW,345,3.6,5.4,25,0.00,,---,0.00,VWS V14.01,2013-12-05 12:29:00,
2013-12-05 06:31:00,19.2,-10.8,29.21,NW,322,4.0,4.0,25,0.00,,---,0.00,VWS V14.01,2013-12-05 12:31:00,
2013-12-05 06:32:00,19.2,-10.8,29.21,North,0,3.1,4.0,25,0.00,,---,0.00,VWS V14.01,2013-12-05 12:32:00,
2013-12-05 06:33:00,19.2,-10.8,29.21,North,0,2.2,4.0,25,0.00,,---,0.00,VWS V14.01,2013-12-05 12:33:00,
2013-12-05 06:34:00,19.0,-11.0,29.21,NNW,330,5.4,5.4,25,0.00,,---,0.00,VWS V14.01,2013-12-05 12:34:00,
2013-12-05 06:36:00,19.0,-11.0,29.21,NW,324,2.2,2.2,25,0.00,,---,0.00,VWS V14.01,2013-12-05 12:36:00,
2013-12-05 06:38:00,19.0,-11.0,29.21,ESE,122,4.9,4.9,25,0.00,,---,0.00,VWS V14.01,2013-12-05 12:38:00,
2013-12-05 06:39:00,19.0,-11.0,29.21,South,185,2.2,4.9,25,0.00,,---,0.00,VWS V14.01,2013-12-05 12:39:00,
2013-12-05 06:41:00,19.0,-11.0,29.18,NNE,24,0.0,0.0,25,0.00,,---,0.00,VWS V14.01,2013-12-05 12:41:00,
2013-12-05 06:43:00,18.9,-11.1,29.18,NNW,334,2.7,8.3,25,0.00,,---,0.00,VWS V14.01,2013-12-05 12:43:00,
2013-12-05 06:44:00,18.9,-11.1,29.18,NW,326,0.0,4.0,25,0.00,,---,0.00,VWS V14.01,2013-12-05 12:44:00,
2013-12-05 06:45:00,18.9,-11.1,29.18,NW,312,2.2,3.1,25,0.00,,---,0.00,VWS V14.01,2013-12-05 12:45:00,
2013-12-05 06:46:00,18.9,-11.1,29.18,North,8,2.7,2.7,25,0.00,,---,0.00,VWS V14.01,2013-12-05 12:46:00,
2013-12-05 06:48:00,18.7,-11.3,29.18,SW,223,0.0,0.0,25,0.00,,---,0.00,VWS V14.01,2013-12-05 12:48:00,
2013-12-05 06:49:00,18.7,-11.3,29.18,WSW,254,2.7,3.1,25,0.00,,---,0.00,VWS V14.01,2013-12-05 12:49:00,
2013-12-05 06:50:00,18.7,-11.3,29.18,NNE,12,2.2,2.7,25,0.00,,---,0.00,VWS V14.01,2013-12-05 12:50:00,
2013-12-05 06:51:00,18.7,-11.3,29.18,North,0,4.0,6.3,25,0.00,,---,0.00,VWS V14.01,2013-12-05 12:51:00,
2013-12-05 06:53:00,18.7,-11.3,29.18,North,5,3.1,3.1,25,0.00,,---,0.00,VWS V14.01,2013-12-05 12:53:00,
2013-12-05 06:54:00,18.7,-11.3,29.18,NNW,329,3.1,3.1,25,0.00,,---,0.00,VWS V14.01,2013-12-05 12:54:00,
2013-12-05 06:55:00,18.7,-11.3,29.21,NNW,343,3.1,4.0,25,0.00,,---,0.00,VWS V14.01,2013-12-05 12:55:00,
2013-12-05 06:56:00,18.5,-11.4,29.21,WSW,241,3.1,3.6,25,0.00,,---,0.00,VWS V14.01,2013-12-05 12:56:00,
2013-12-05 06:58:00,18.5,-11.4,29.21,NW,317,6.3,6.3,25,0.00,,---,0.00,VWS V14.01,2013-12-05 12:58:00,
2013-12-05 06:59:00,18.5,-11.4,29.21,NNW,337,3.1,3.1,25,0.00,,---,0.00,VWS V14.01,2013-12-05 12:59:00,
2013-12-05 07:00:00,18.5,-11.4,29.21,North,353,5.4,5.4,25,0.00,,---,0.00,VWS V14.01,2013-12-05 13:00:00,
2013-12-05 07:01:00,18.5,-11.4,29.21,NNW,342,0.0,5.4,25,0.00,,---,0.00,VWS V14.01,2013-12-05 13:01:00,
2013-12-05 07:02:00,18.5,-11.4,29.21,NW,310,2.7,4.0,25,0.00,,---,0.00,VWS V14.01,2013-12-05 13:02:00,
2013-12-05 07:03:00,18.3,-11.6,29.21,North,5,0.0,2.2,25,0.00,,---,0.00,VWS V14.01,2013-12-05 13:03:00,
2013-12-05 07:04:00,18.3,-11.6,29.21,WNW,283,3.6,3.6,25,0.00,,---,0.00,VWS V14.01,2013-12-05 13:04:00,
2013-12-05 07:05:00,18.3,-11.6,29.21,North,4,2.7,3.6,25,0.00,,---,0.00,VWS V14.01,2013-12-05 13:05:00,
2013-12-05 07:06:00,18.3,-11.6,29.21,North,353,3.1,5.8,25,0.00,,---,0.00,VWS V14.01,2013-12-05 13:06:00,
2013-12-05 07:07:00,18.3,-11.6,29.21,SSW,211,2.7,4.0,25,0.00,,---,0.00,VWS V14.01,2013-12-05 13:07:00,
2013-12-05 07:08:00,18.3,-11.6,29.21,NNW,346,4.0,4.0,25,0.00,,---,0.00,VWS V14.01,2013-12-05 13:08:00,
2013-12-05 07:09:00,18.1,-11.8,29.21,North,7,2.7,4.5,25,0.00,,---,0.00,VWS V14.01,2013-12-05 13:09:00,
2013-12-05 07:10:00,18.1,-11.8,29.21,North,0,6.3,6.3,25,0.00,,---,0.00,VWS V14.01,2013-12-05 13:10:00,
2013-12-05 07:11:00,18.1,-11.8,29.21,WSW,255,3.6,5.4,25,0.00,,---,0.00,VWS V14.01,2013-12-05 13:11:00,
2013-12-05 07:13:00,18.1,-11.8,29.21,North,357,3.1,4.9,25,0.00,,---,0.00,VWS V14.01,2013-12-05 13:13:00,
2013-12-05 07:14:00,18.1,-11.8,29.21,North,0,5.4,8.3,25,0.00,,---,0.00,VWS V14.01,2013-12-05 13:14:00,
2013-12-05 07:15:00,18.1,-11.8,29.21,North,353,5.8,5.8,25,0.00,,---,0.00,VWS V14.01,2013-12-05 13:15:00,
2013-12-05 07:16:00,18.0,-11.9,29.21,NNW,331,4.0,4.0,25,0.00,,---,0.00,VWS V14.01,2013-12-05 13:16:00,
2013-12-05 07:18:00,18.0,-11.9,29.21,NW,311,2.7,2.7,25,0.00,,---,0.00,VWS V14.01,2013-12-05 13:18:00,
2013-12-05 07:19:00,18.0,-11.9,29.21,West,272,8.3,8.3,25,0.00,,---,0.00,VWS V14.01,2013-12-05 13:19:00,
2013-12-05 07:20:00,17.8,-12.1,29.21,NW,317,3.1,7.6,25,0.00,,---,0.00,VWS V14.01,2013-12-05 13:20:00,
2013-12-05 07:21:00,17.8,-12.1,29.21,NNW,341,4.9,8.1,25,0.00,,---,0.00,VWS V14.01,2013-12-05 13:21:00,
2013-12-05 07:23:00,17.8,-12.1,29.21,NNW,346,3.6,5.4,25,0.00,,---,0.00,VWS V14.01,2013-12-05 13:23:00,
2013-12-05 07:24:00,17.8,-12.1,29.21,NW,306,5.4,5.4,25,0.00,,---,0.00,VWS V14.01,2013-12-05 13:24:00,
2013-12-05 07:25:00,17.8,-12.1,29.21,NNW,342,3.6,7.2,25,0.00,,---,0.00,VWS V14.01,2013-12-05 13:25:00,
2013-12-05 07:26:00,17.8,-12.1,29.21,North,3,2.7,4.0,25,0.00,,---,0.00,VWS V14.01,2013-12-05 13:26:00,
2013-12-05 07:28:00,17.8,-12.1,29.21,West,272,5.4,5.4,25,0.00,,---,0.00,VWS V14.01,2013-12-05 13:28:00,
2013-12-05 07:29:00,17.6,-11.4,29.21,WSW,239,4.0,5.4,26,0.00,,---,0.00,VWS V14.01,2013-12-05 13:29:00,
2013-12-05 07:30:00,17.6,-11.4,29.21,SSW,211,2.7,4.0,26,0.00,,---,0.00,VWS V14.01,2013-12-05 13:30:00,
2013-12-05 07:31:00,17.6,-11.4,29.21,NNE,19,2.2,4.0,26,0.00,,---,0.00,VWS V14.01,2013-12-05 13:31:00,
2013-12-05 07:32:00,17.6,-11.4,29.21,WNW,283,3.6,4.5,26,0.00,,---,0.00,VWS V14.01,2013-12-05 13:32:00,
2013-12-05 07:33:00,17.6,-11.4,29.21,NNW,338,6.3,6.3,26,0.00,,---,0.00,VWS V14.01,2013-12-05 13:33:00,
2013-12-05 07:34:00,17.6,-11.4,29.21,WSW,254,2.2,2.7,26,0.00,,---,0.00,VWS V14.01,2013-12-05 13:34:00,
2013-12-05 07:35:00,17.6,-11.4,29.21,SSE,153,3.6,4.9,26,0.00,,---,0.00,VWS V14.01,2013-12-05 13:35:00,
2013-12-05 07:36:00,17.6,-11.4,29.21,North,353,7.2,7.2,26,0.00,,---,0.00,VWS V14.01,2013-12-05 13:36:00,
2013-12-05 07:37:00,17.6,-11.4,29.21,North,7,4.0,9.6,26,0.00,,---,0.00,VWS V14.01,2013-12-05 13:37:00,
2013-12-05 07:38:00,17.4,-11.6,29.21,NNW,334,6.3,7.2,26,0.00,,---,0.00,VWS V14.01,2013-12-05 13:38:00,
2013-12-05 07:40:00,17.4,-11.6,29.21,NNW,339,3.6,3.6,26,0.00,,---,0.00,VWS V14.01,2013-12-05 13:40:00,
2013-12-05 07:41:00,17.4,-11.6,29.21,North,0,2.7,4.9,26,0.00,,---,0.00,VWS V14.01,2013-12-05 13:41:00,
2013-12-05 07:42:00,17.4,-11.6,29.21,NNW,343,5.8,7.2,26,0.00,,---,0.00,VWS V14.01,2013-12-05 13:42:00,
2013-12-05 07:43:00,17.4,-11.6,29.21,West,269,4.0,5.8,26,0.00,,---,0.00,VWS V14.01,2013-12-05 13:43:00,
2013-12-05 07:45:00,17.4,-11.6,29.21,NNW,343,2.7,3.1,26,0.00,,---,0.00,VWS V14.01,2013-12-05 13:45:00,
2013-12-05 07:46:00,17.4,-11.6,29.21,NNW,343,0.0,0.0,26,0.00,,---,0.00,VWS V14.01,2013-12-05 13:46:00,
2013-12-05 07:47:00,17.4,-11.6,29.21,SW,224,6.3,6.3,26,0.00,,---,0.00,VWS V14.01,2013-12-05 13:47:00,
2013-12-05 07:48:00,17.4,-11.6,29.21,WNW,290,3.6,3.6,26,0.00,,---,0.00,VWS V14.01,2013-12-05 13:48:00,
2013-12-05 07:49:00,17.4,-11.6,29.21,North,353,3.1,6.3,26,0.00,,---,0.00,VWS V14.01,2013-12-05 13:49:00,
2013-12-05 07:50:00,17.4,-11.6,29.21,North,5,3.6,4.0,26,0.00,,---,0.00,VWS V14.01,2013-12-05 13:50:00,
2013-12-05 07:52:00,17.4,-11.6,29.21,NNW,341,3.1,4.0,26,0.00,,---,0.00,VWS V14.01,2013-12-05 13:52:00,
2013-12-05 07:53:00,17.4,-11.6,29.21,NNW,328,3.1,4.0,26,0.00,,---,0.00,VWS V14.01,2013-12-05 13:53:00,
2013-12-05 07:54:00,17.2,-11.8,29.21,NNE,30,0.0,2.7,26,0.00,,---,0.00,VWS V14.01,2013-12-05 13:54:00,
2013-12-05 07:55:00,17.2,-11.8,29.21,NNE,31,0.0,0.0,26,0.00,,---,0.00,VWS V14.01,2013-12-05 13:55:00,
2013-12-05 07:57:00,17.2,-11.8,29.23,North,353,3.6,4.0,26,0.00,,---,0.00,VWS V14.01,2013-12-05 13:57:00,
2013-12-05 07:58:00,17.2,-11.8,29.23,North,0,3.1,3.1,26,0.00,,---,0.00,VWS V14.01,2013-12-05 13:58:00,
2013-12-05 07:59:00,17.2,-11.8,29.23,WSW,237,2.7,2.7,26,0.00,,---,0.00,VWS V14.01,2013-12-05 13:59:00,
2013-12-05 08:00:00,17.1,-11.9,29.23,North,0,4.0,4.0,26,0.00,,---,0.00,VWS V14.01,2013-12-05 14:00:00,
2013-12-05 08:02:00,17.1,-11.9,29.23,North,0,0.0,4.0,26,0.00,,---,0.00,VWS V14.01,2013-12-05 14:02:00,
2013-12-05 08:04:00,17.1,-11.9,29.23,NE,45,3.1,4.9,26,0.00,,---,0.00,VWS V14.01,2013-12-05 14:04:00,
2013-12-05 08:05:00,17.1,-11.9,29.23,NE,39,2.7,3.6,26,0.00,,---,0.00,VWS V14.01,2013-12-05 14:05:00,
2013-12-05 08:07:00,17.1,-11.9,29.23,North,6,3.6,5.8,26,0.00,,---,0.00,VWS V14.01,2013-12-05 14:07:00,
2013-12-05 08:09:00,17.1,-11.9,29.23,NNW,345,5.8,5.8,26,0.00,,---,0.00,VWS V14.01,2013-12-05 14:09:00,
2013-12-05 08:10:00,17.1,-11.9,29.21,NNW,336,2.7,5.4,26,0.00,,---,0.00,VWS V14.01,2013-12-05 14:10:00,
2013-12-05 08:12:00,17.1,-11.9,29.21,SW,236,3.6,5.4,26,0.00,,---,0.00,VWS V14.01,2013-12-05 14:12:00,
2013-12-05 08:14:00,17.1,-11.9,29.21,North,350,5.4,5.4,26,0.00,,---,0.00,VWS V14.01,2013-12-05 14:14:00,
2013-12-05 08:15:00,17.1,-11.9,29.21,North,353,2.7,8.3,26,0.00,,---,0.00,VWS V14.01,2013-12-05 14:15:00,
2013-12-05 08:16:00,17.1,-11.9,29.21,North,0,2.7,8.3,26,0.00,,---,0.00,VWS V14.01,2013-12-05 14:16:00,
2013-12-05 08:17:00,17.1,-11.9,29.21,North,0,4.5,4.5,26,0.00,,---,0.00,VWS V14.01,2013-12-05 14:17:00,
2013-12-05 08:18:00,17.1,-11.9,29.21,North,0,4.5,4.5,26,0.00,,---,0.00,VWS V14.01,2013-12-05 14:18:00,
2013-12-05 08:19:00,17.1,-11.9,29.21,NNW,331,5.8,5.8,26,0.00,,---,0.00,VWS V14.01,2013-12-05 14:19:00,
2013-12-05 08:20:00,17.1,-11.9,29.21,North,0,4.0,5.4,26,0.00,,---,0.00,VWS V14.01,2013-12-05 14:20:00,
2013-12-05 08:21:00,17.1,-11.9,29.21,NNW,343,6.3,6.3,26,0.00,,---,0.00,VWS V14.01,2013-12-05 14:21:00,
2013-12-05 08:23:00,16.9,-12.1,29.21,NNW,328,8.1,8.1,26,0.00,,---,0.00,VWS V14.01,2013-12-05 14:23:00,
2013-12-05 08:24:00,16.9,-12.1,29.21,North,0,7.6,10.1,26,0.00,,---,0.00,VWS V14.01,2013-12-05 14:24:00,
2013-12-05 08:25:00,16.9,-12.1,29.21,NNW,328,3.1,7.2,26,0.00,,---,0.00,VWS V14.01,2013-12-05 14:25:00,
2013-12-05 08:26:00,16.9,-12.1,29.21,NW,314,3.1,7.2,26,0.00,,---,0.00,VWS V14.01,2013-12-05 14:26:00,
2013-12-05 08:28:00,16.9,-12.1,29.21,North,7,0.0,6.3,26,0.00,,---,0.00,VWS V14.01,2013-12-05 14:28:00,
2013-12-05 08:29:00,16.9,-12.1,29.21,NNE,28,2.7,2.7,26,0.00,,---,0.00,VWS V14.01,2013-12-05 14:29:00,
2013-12-05 08:31:00,16.9,-12.1,29.21,SSW,203,3.1,9.6,26,0.00,,---,0.00,VWS V14.01,2013-12-05 14:31:00,
2013-12-05 08:33:00,16.9,-12.1,29.21,NW,326,3.1,6.3,26,0.00,,---,0.00,VWS V14.01,2013-12-05 14:33:00,
2013-12-05 08:34:00,16.9,-12.1,29.21,NNW,346,3.1,3.1,26,0.00,,---,0.00,VWS V14.01,2013-12-05 14:34:00,
2013-12-05 08:36:00,16.9,-12.1,29.21,WNW,286,2.2,3.1,26,0.00,,---,0.00,VWS V14.01,2013-12-05 14:36:00,
2013-12-05 08:37:00,16.9,-12.1,29.21,SW,221,4.9,4.9,26,0.00,,---,0.00,VWS V14.01,2013-12-05 14:37:00,
2013-12-05 08:38:00,16.9,-12.1,29.21,NNE,16,2.7,3.1,26,0.00,,---,0.00,VWS V14.01,2013-12-05 14:38:00,
2013-12-05 08:39:00,16.9,-12.1,29.21,NNW,342,2.7,2.7,26,0.00,,---,0.00,VWS V14.01,2013-12-05 14:39:00,
2013-12-05 08:41:00,16.9,-12.1,29.23,WNW,287,2.7,3.6,26,0.00,,---,0.00,VWS V14.01,2013-12-05 14:41:00,
2013-12-05 08:42:00,16.9,-12.1,29.23,WNW,286,0.0,3.6,26,0.00,,---,0.00,VWS V14.01,2013-12-05 14:42:00,
2013-12-05 08:44:00,16.9,-12.1,29.23,NNW,327,0.0,0.0,26,0.00,,---,0.00,VWS V14.01,2013-12-05 14:44:00,
2013-12-05 08:47:00,16.9,-12.1,29.23,NE,35,4.0,10.5,26,0.00,,---,0.00,VWS V14.01,2013-12-05 14:47:00,
2013-12-05 08:49:00,16.9,-12.1,29.23,SE,127,4.0,4.9,26,0.00,,---,0.00,VWS V14.01,2013-12-05 14:49:00,
2013-12-05 08:52:00,16.9,-12.1,29.23,North,0,6.3,6.3,26,0.00,,---,0.00,VWS V14.01,2013-12-05 14:52:00,
2013-12-05 08:54:00,16.9,-12.1,29.23,NW,319,4.0,6.3,26,0.00,,---,0.00,VWS V14.01,2013-12-05 14:54:00,
2013-12-05 08:57:00,16.9,-12.1,29.23,WSW,245,2.7,2.7,26,0.00,,---,0.00,VWS V14.01,2013-12-05 14:57:00,
2013-12-05 08:58:00,16.9,-12.1,29.23,NNW,329,2.7,2.7,26,0.00,,---,0.00,VWS V14.01,2013-12-05 14:58:00,
2013-12-05 08:59:00,16.9,-12.1,29.23,NNW,341,3.6,3.6,26,0.00,,---,0.00,VWS V14.01,2013-12-05 14:59:00,
2013-12-05 09:00:00,16.9,-12.1,29.23,West,275,3.1,3.6,26,0.00,,---,0.00,VWS V14.01,2013-12-05 15:00:00,
2013-12-05 09:02:00,16.9,-12.1,29.23,North,357,9.6,9.6,26,0.00,,---,0.00,VWS V14.01,2013-12-05 15:02:00,
2013-12-05 09:03:00,16.9,-12.1,29.23,North,2,8.7,9.6,26,0.00,,---,0.00,VWS V14.01,2013-12-05 15:03:00,
2013-12-05 09:04:00,16.9,-12.1,29.23,NW,315,2.7,6.3,26,0.00,,---,0.00,VWS V14.01,2013-12-05 15:04:00,
2013-12-05 09:05:00,16.9,-12.1,29.23,NW,315,2.7,6.3,26,0.00,,---,0.00,VWS V14.01,2013-12-05 15:05:00,
2013-12-05 09:08:00,16.9,-12.1,29.23,NW,322,3.6,3.6,26,0.00,,---,0.00,VWS V14.01,2013-12-05 15:08:00,
2013-12-05 09:09:00,17.1,-11.9,29.23,NNW,344,3.1,6.3,26,0.00,,---,0.00,VWS V14.01,2013-12-05 15:09:00,
2013-12-05 09:10:00,17.1,-11.9,29.23,NW,314,3.6,6.3,26,0.00,,---,0.00,VWS V14.01,2013-12-05 15:10:00,
2013-12-05 09:13:00,17.1,-11.9,29.23,NW,317,0.0,7.6,26,0.00,,---,0.00,VWS V14.01,2013-12-05 15:13:00,
2013-12-05 09:14:00,17.1,-11.9,29.23,NNW,337,2.7,2.7,26,0.00,,---,0.00,VWS V14.01,2013-12-05 15:14:00,
2013-12-05 09:16:00,17.1,-11.9,29.23,NNW,342,3.1,4.5,26,0.00,,---,0.00,VWS V14.01,2013-12-05 15:16:00,
2013-12-05 09:18:00,17.1,-11.9,29.23,SSW,210,4.9,8.1,26,0.00,,---,0.00,VWS V14.01,2013-12-05 15:18:00,
2013-12-05 09:19:00,17.1,-11.9,29.23,SW,220,3.6,8.1,26,0.00,,---,0.00,VWS V14.01,2013-12-05 15:19:00,
2013-12-05 09:20:00,17.1,-11.9,29.23,WNW,284,3.1,3.6,26,0.00,,---,0.00,VWS V14.01,2013-12-05 15:20:00,
2013-12-05 09:21:00,17.1,-11.9,29.23,WNW,299,3.6,8.3,26,0.00,,---,0.00,VWS V14.01,2013-12-05 15:21:00,
2013-12-05 09:23:00,17.1,-11.9,29.23,NE,39,2.2,4.0,26,0.00,,---,0.00,VWS V14.01,2013-12-05 15:23:00,
2013-12-05 09:24:00,17.1,-11.9,29.23,East,91,3.1,3.1,26,0.00,,---,0.00,VWS V14.01,2013-12-05 15:24:00,
2013-12-05 09:25:00,17.1,-11.9,29.23,North,357,4.9,4.9,26,0.00,,---,0.00,VWS V14.01,2013-12-05 15:25:00,
2013-12-05 09:26:00,17.1,-11.9,29.23,NNW,346,2.7,3.1,26,0.00,,---,0.00,VWS V14.01,2013-12-05 15:26:00,
2013-12-05 09:28:00,17.2,-11.8,29.23,NNW,335,4.0,5.4,26,0.00,,---,0.00,VWS V14.01,2013-12-05 15:28:00,
2013-12-05 09:29:00,17.2,-11.8,29.23,NW,316,2.7,2.7,26,0.00,,---,0.00,VWS V14.01,2013-12-05 15:29:00,
2013-12-05 09:30:00,17.2,-11.8,29.23,West,262,4.9,4.9,26,0.00,,---,0.00,VWS V14.01,2013-12-05 15:30:00,
2013-12-05 09:31:00,17.4,-11.6,29.23,East,95,2.7,2.7,26,0.00,,---,0.00,VWS V14.01,2013-12-05 15:31:00,
2013-12-05 09:33:00,17.4,-11.6,29.23,WSW,249,2.2,3.6,26,0.00,,---,0.00,VWS V14.01,2013-12-05 15:33:00,
2013-12-05 09:34:00,17.4,-11.6,29.23,NNW,336,5.4,5.4,26,0.00,,---,0.00,VWS V14.01,2013-12-05 15:34:00,
2013-12-05 09:35:00,17.4,-11.6,29.23,SW,223,4.5,4.9,26,0.00,,---,0.00,VWS V14.01,2013-12-05 15:35:00,
2013-12-05 09:36:00,17.4,-11.6,29.23,NW,324,3.1,3.1,26,0.00,,---,0.00,VWS V14.01,2013-12-05 15:36:00,
2013-12-05 09:38:00,17.4,-11.6,29.23,NE,41,3.1,3.1,26,0.00,,---,0.00,VWS V14.01,2013-12-05 15:38:00,
2013-12-05 09:39:00,17.4,-11.6,29.23,NW,315,0.0,0.0,26,0.00,,---,0.00,VWS V14.01,2013-12-05 15:39:00,
2013-12-05 09:40:00,17.6,-11.4,29.23,NE,35,2.2,5.4,26,0.00,,---,0.00,VWS V14.01,2013-12-05 15:40:00,
2013-12-05 09:41:00,17.6,-11.4,29.23,North,9,2.7,5.4,26,0.00,,---,0.00,VWS V14.01,2013-12-05 15:41:00,
2013-12-05 09:42:00,17.6,-11.4,29.23,North,357,4.0,5.4,26,0.00,,---,0.00,VWS V14.01,2013-12-05 15:42:00,
2013-12-05 09:43:00,17.6,-11.4,29.23,WNW,296,3.1,3.6,26,0.00,,---,0.00,VWS V14.01,2013-12-05 15:43:00,
2013-12-05 09:44:00,17.6,-11.4,29.23,NNW,346,3.1,3.6,26,0.00,,---,0.00,VWS V14.01,2013-12-05 15:44:00,
2013-12-05 09:45:00,17.6,-11.4,29.23,NNW,345,3.6,5.8,26,0.00,,---,0.00,VWS V14.01,2013-12-05 15:45:00,
2013-12-05 09:47:00,17.6,-11.4,29.23,NNW,343,3.1,3.6,26,0.00,,---,0.00,VWS V14.01,2013-12-05 15:47:00,
2013-12-05 09:48:00,17.6,-11.4,29.23,WSW,242,2.7,5.4,26,0.00,,---,0.00,VWS V14.01,2013-12-05 15:48:00,
2013-12-05 09:49:00,17.6,-11.4,29.23,North,1,2.7,2.7,26,0.00,,---,0.00,VWS V14.01,2013-12-05 15:49:00,
2013-12-05 09:50:00,17.8,-12.1,29.23,NNW,348,7.6,7.6,25,0.00,,---,0.00,VWS V14.01,2013-12-05 15:50:00,
2013-12-05 09:52:00,17.8,-12.1,29.23,NNW,327,8.1,8.1,25,0.00,,---,0.00,VWS V14.01,2013-12-05 15:52:00,
2013-12-05 09:53:00,17.8,-12.1,29.23,West,277,5.8,5.8,25,0.00,,---,0.00,VWS V14.01,2013-12-05 15:53:00,
2013-12-05 09:54:00,17.8,-12.1,29.23,NNW,329,2.2,6.3,25,0.00,,---,0.00,VWS V14.01,2013-12-05 15:54:00,
2013-12-05 09:55:00,17.8,-12.1,29.23,NW,314,2.7,6.3,25,0.00,,---,0.00,VWS V14.01,2013-12-05 15:55:00,
2013-12-05 09:56:00,17.8,-12.1,29.23,NW,311,4.0,6.3,25,0.00,,---,0.00,VWS V14.01,2013-12-05 15:56:00,
2013-12-05 09:57:00,17.8,-12.1,29.23,WNW,301,3.1,7.6,25,0.00,,---,0.00,VWS V14.01,2013-12-05 15:57:00,
2013-12-05 09:58:00,17.6,-11.4,29.23,NNW,337,5.8,7.6,26,0.00,,---,0.00,VWS V14.01,2013-12-05 15:58:00,
2013-12-05 09:59:00,17.6,-11.4,29.23,NNW,334,4.0,4.9,26,0.00,,---,0.00,VWS V14.01,2013-12-05 15:59:00,
2013-12-05 10:00:00,17.6,-11.4,29.23,North,4,5.4,5.4,26,0.00,,---,0.00,VWS V14.01,2013-12-05 16:00:00,
2013-12-05 10:01:00,17.6,-11.4,29.23,North,357,3.1,7.6,26,0.00,,---,0.00,VWS V14.01,2013-12-05 16:01:00,
2013-12-05 10:03:00,17.6,-11.4,29.23,WNW,297,3.1,4.9,26,0.00,,---,0.00,VWS V14.01,2013-12-05 16:03:00,
2013-12-05 10:04:00,17.6,-11.4,29.23,NW,320,2.7,5.8,26,0.00,,---,0.00,VWS V14.01,2013-12-05 16:04:00,
2013-12-05 10:05:00,17.6,-11.4,29.23,North,3,0.0,3.6,26,0.00,,---,0.00,VWS V14.01,2013-12-05 16:05:00,
2013-12-05 10:06:00,17.6,-11.4,29.23,North,353,3.6,3.6,26,0.00,,---,0.00,VWS V14.01,2013-12-05 16:06:00,
2013-12-05 10:08:00,17.8,-12.1,29.23,North,357,3.1,6.7,25,0.00,,---,0.00,VWS V14.01,2013-12-05 16:08:00,
2013-12-05 10:09:00,17.8,-12.1,29.23,North,2,9.6,9.6,25,0.00,,---,0.00,VWS V14.01,2013-12-05 16:09:00,
2013-12-05 10:10:00,17.8,-12.1,29.23,North,357,3.6,5.4,25,0.00,,---,0.00,VWS V14.01,2013-12-05 16:10:00,
2013-12-05 10:11:00,17.8,-12.1,29.23,NNW,340,3.6,5.8,25,0.00,,---,0.00,VWS V14.01,2013-12-05 16:11:00,
2013-12-05 10:13:00,18.0,-11.9,29.23,NNE,18,5.4,7.6,25,0.00,,---,0.00,VWS V14.01,2013-12-05 16:13:00,
2013-12-05 10:14:00,18.0,-11.9,29.23,North,5,4.0,4.0,25,0.00,,---,0.00,VWS V14.01,2013-12-05 16:14:00,
2013-12-05 10:15:00,18.0,-11.9,29.23,WSW,237,3.1,4.0,25,0.00,,---,0.00,VWS V14.01,2013-12-05 16:15:00,
2013-12-05 10:16:00,18.0,-11.9,29.23,North,350,8.3,8.3,25,0.00,,---,0.00,VWS V14.01,2013-12-05 16:16:00,
2013-12-05 10:18:00,18.1,-11.8,29.23,North,0,3.6,3.6,25,0.00,,---,0.00,VWS V14.01,2013-12-05 16:18:00,
2013-12-05 10:19:00,18.1,-11.8,29.23,NNW,344,4.0,4.5,25,0.00,,---,0.00,VWS V14.01,2013-12-05 16:19:00,
2013-12-05 10:20:00,18.1,-11.8,29.23,North,0,2.7,7.6,25,0.00,,---,0.00,VWS V14.01,2013-12-05 16:20:00,
2013-12-05 10:21:00,18.1,-11.8,29.23,NNW,338,3.1,3.1,25,0.00,,---,0.00,VWS V14.01,2013-12-05 16:21:00,
2013-12-05 10:23:00,18.1,-11.8,29.23,NNW,338,2.7,2.7,25,0.00,,---,0.00,VWS V14.01,2013-12-05 16:23:00,
2013-12-05 10:24:00,18.1,-11.8,29.23,North,0,2.7,2.7,25,0.00,,---,0.00,VWS V14.01,2013-12-05 16:24:00,
2013-12-05 10:25:00,18.1,-11.8,29.23,NNW,339,10.5,10.5,25,0.00,,---,0.00,VWS V14.01,2013-12-05 16:25:00,
2013-12-05 10:26:00,18.1,-11.8,29.23,North,7,5.8,10.5,25,0.00,,---,0.00,VWS V14.01,2013-12-05 16:26:00,
2013-12-05 10:28:00,18.1,-11.8,29.23,WNW,284,2.7,3.6,25,0.00,,---,0.00,VWS V14.01,2013-12-05 16:28:00,
2013-12-05 10:29:00,18.1,-11.8,29.23,North,357,2.7,4.0,25,0.00,,---,0.00,VWS V14.01,2013-12-05 16:29:00,
2013-12-05 10:30:00,18.1,-11.8,29.23,NE,34,4.9,5.8,25,0.00,,---,0.00,VWS V14.01,2013-12-05 16:30:00,
2013-12-05 10:31:00,18.1,-11.8,29.23,North,350,3.6,5.4,25,0.00,,---,0.00,VWS V14.01,2013-12-05 16:31:00,
2013-12-05 10:32:00,18.1,-11.8,29.23,NNW,330,5.8,5.8,25,0.00,,---,0.00,VWS V14.01,2013-12-05 16:32:00,
2013-12-05 10:33:00,18.1,-11.8,29.23,NNW,340,2.7,5.4,25,0.00,,---,0.00,VWS V14.01,2013-12-05 16:33:00,
2013-12-05 10:34:00,18.1,-11.8,29.23,North,357,4.0,4.0,25,0.00,,---,0.00,VWS V14.01,2013-12-05 16:34:00,
2013-12-05 10:35:00,18.3,-11.6,29.23,West,281,4.0,4.0,25,0.00,,---,0.00,VWS V14.01,2013-12-05 16:35:00,
2013-12-05 10:36:00,18.3,-11.6,29.23,North,353,5.4,5.4,25,0.00,,---,0.00,VWS V14.01,2013-12-05 16:36:00,
2013-12-05 10:37:00,18.3,-11.6,29.23,North,9,5.4,5.4,25,0.00,,---,0.00,VWS V14.01,2013-12-05 16:37:00,
2013-12-05 10:39:00,18.3,-11.6,29.23,North,0,3.1,7.2,25,0.00,,---,0.00,VWS V14.01,2013-12-05 16:39:00,
2013-12-05 10:40:00,18.3,-11.6,29.23,North,6,5.8,5.8,25,0.00,,---,0.00,VWS V14.01,2013-12-05 16:40:00,
2013-12-05 10:41:00,18.3,-11.6,29.23,North,353,5.4,7.6,25,0.00,,---,0.00,VWS V14.01,2013-12-05 16:41:00,
2013-12-05 10:42:00,18.3,-11.6,29.23,NNW,339,6.3,6.3,25,0.00,,---,0.00,VWS V14.01,2013-12-05 16:42:00,
2013-12-05 10:44:00,18.3,-11.6,29.23,NNW,344,3.6,3.6,25,0.00,,---,0.00,VWS V14.01,2013-12-05 16:44:00,
2013-12-05 10:45:00,18.3,-11.6,29.23,NW,322,0.0,4.0,25,0.00,,---,0.00,VWS V14.01,2013-12-05 16:45:00,
2013-12-05 10:46:00,18.3,-11.6,29.23,North,353,5.4,7.6,25,0.00,,---,0.00,VWS V14.01,2013-12-05 16:46:00,
2013-12-05 10:47:00,18.3,-11.6,29.23,North,353,2.2,2.7,25,0.00,,---,0.00,VWS V14.01,2013-12-05 16:47:00,
2013-12-05 10:49:00,18.5,-11.4,29.23,WSW,250,3.6,4.9,25,0.00,,---,0.00,VWS V14.01,2013-12-05 16:49:00,
2013-12-05 10:50:00,18.5,-11.4,29.23,WNW,289,3.1,4.9,25,0.00,,---,0.00,VWS V14.01,2013-12-05 16:50:00,
2013-12-05 10:52:00,18.5,-11.4,29.23,NW,324,6.3,8.3,25,0.00,,---,0.00,VWS V14.01,2013-12-05 16:52:00,
2013-12-05 10:54:00,18.5,-11.4,29.23,NW,304,5.8,6.3,25,0.00,,---,0.00,VWS V14.01,2013-12-05 16:54:00,
2013-12-05 10:55:00,18.5,-11.4,29.23,NNW,332,4.0,6.3,25,0.00,,---,0.00,VWS V14.01,2013-12-05 16:55:00,
2013-12-05 10:57:00,18.5,-11.4,29.26,NNE,12,2.2,4.9,25,0.00,,---,0.00,VWS V14.01,2013-12-05 16:57:00,
2013-12-05 10:59:00,18.7,-11.3,29.26,West,276,2.2,3.1,25,0.00,,---,0.00,VWS V14.01,2013-12-05 16:59:00,
2013-12-05 11:00:00,18.7,-11.3,29.26,NNW,337,2.7,3.1,25,0.00,,---,0.00,VWS V14.01,2013-12-05 17:00:00,
2013-12-05 11:02:00,18.7,-11.3,29.26,NNW,346,2.7,5.8,25,0.00,,---,0.00,VWS V14.01,2013-12-05 17:02:00,
2013-12-05 11:04:00,18.7,-11.3,29.26,SSE,149,3.6,3.6,25,0.00,,---,0.00,VWS V14.01,2013-12-05 17:04:00,
2013-12-05 11:05:00,18.7,-11.3,29.26,WSW,242,4.5,4.5,25,0.00,,---,0.00,VWS V14.01,2013-12-05 17:05:00,
2013-12-05 11:06:00,18.9,-11.1,29.26,WSW,237,4.0,4.5,25,0.00,,---,0.00,VWS V14.01,2013-12-05 17:06:00,
2013-12-05 11:07:00,18.9,-11.1,29.26,WSW,250,2.2,3.1,25,0.00,,---,0.00,VWS V14.01,2013-12-05 17:07:00,
2013-12-05 11:08:00,18.9,-11.1,29.26,North,353,2.7,5.8,25,0.00,,---,0.00,VWS V14.01,2013-12-05 17:08:00,
2013-12-05 11:09:00,18.9,-11.1,29.26,SSW,213,3.6,6.3,25,0.00,,---,0.00,VWS V14.01,2013-12-05 17:09:00,
2013-12-05 11:10:00,18.7,-11.3,29.26,WSW,251,2.2,3.1,25,0.00,,---,0.00,VWS V14.01,2013-12-05 17:10:00,
2013-12-05 11:11:00,18.7,-11.3,29.26,SW,233,3.1,3.1,25,0.00,,---,0.00,VWS V14.01,2013-12-05 17:11:00,
2013-12-05 11:12:00,18.7,-11.3,29.26,South,177,2.7,4.9,25,0.00,,---,0.00,VWS V14.01,2013-12-05 17:12:00,
2013-12-05 11:14:00,18.7,-11.3,29.26,SSE,150,3.1,3.1,25,0.00,,---,0.00,VWS V14.01,2013-12-05 17:14:00,
2013-12-05 11:15:00,18.7,-11.3,29.26,North,353,2.7,3.1,25,0.00,,---,0.00,VWS V14.01,2013-12-05 17:15:00,
2013-12-05 11:16:00,18.7,-11.3,29.26,North,3,4.0,7.6,25,0.00,,---,0.00,VWS V14.01,2013-12-05 17:16:00,
2013-12-05 11:18:00,18.7,-11.3,29.26,NE,45,2.7,4.0,25,0.00,,---,0.00,VWS V14.01,2013-12-05 17:18:00,
2013-12-05 11:19:00,18.7,-11.3,29.26,WNW,298,4.0,6.3,25,0.00,,---,0.00,VWS V14.01,2013-12-05 17:19:00,
2013-12-05 11:20:00,18.7,-11.3,29.26,NNW,341,5.4,6.3,25,0.00,,---,0.00,VWS V14.01,2013-12-05 17:20:00,
2013-12-05 11:21:00,18.7,-11.3,29.26,West,271,5.8,8.1,25,0.00,,---,0.00,VWS V14.01,2013-12-05 17:21:00,
2013-12-05 11:23:00,18.7,-11.3,29.26,North,357,3.6,3.6,25,0.00,,---,0.00,VWS V14.01,2013-12-05 17:23:00,
2013-12-05 11:24:00,18.7,-11.3,29.26,NNE,24,4.9,4.9,25,0.00,,---,0.00,VWS V14.01,2013-12-05 17:24:00,
2013-12-05 11:25:00,18.7,-11.3,29.26,NW,311,4.0,4.0,25,0.00,,---,0.00,VWS V14.01,2013-12-05 17:25:00,
2013-12-05 11:26:00,18.7,-11.3,29.26,WSW,248,3.6,4.0,25,0.00,,---,0.00,VWS V14.01,2013-12-05 17:26:00,
2013-12-05 11:28:00,18.7,-11.3,29.26,WNW,283,2.7,3.6,25,0.00,,---,0.00,VWS V14.01,2013-12-05 17:28:00,
2013-12-05 11:30:00,18.7,-11.3,29.26,North,9,3.6,6.3,25,0.00,,---,0.00,VWS V14.01,2013-12-05 17:30:00,
2013-12-05 11:31:00,18.7,-11.3,29.26,North,357,5.4,8.1,25,0.00,,---,0.00,VWS V14.01,2013-12-05 17:31:00,
2013-12-05 11:33:00,18.7,-11.3,29.26,North,5,3.6,5.8,25,0.00,,---,0.00,VWS V14.01,2013-12-05 17:33:00,
2013-12-05 11:35:00,18.7,-11.3,29.26,North,5,3.6,5.8,25,0.00,,---,0.00,VWS V14.01,2013-12-05 17:35:00,
2013-12-05 11:36:00,18.7,-11.3,29.26,North,353,3.1,3.1,25,0.00,,---,0.00,VWS V14.01,2013-12-05 17:36:00,
2013-12-05 11:38:00,18.7,-11.3,29.26,North,353,3.6,3.6,25,0.00,,---,0.00,VWS V14.01,2013-12-05 17:38:00,
2013-12-05 11:40:00,18.7,-11.3,29.26,North,357,2.7,3.1,25,0.00,,---,0.00,VWS V14.01,2013-12-05 17:40:00,
2013-12-05 11:41:00,18.7,-11.3,29.26,NNW,345,2.7,3.1,25,0.00,,---,0.00,VWS V14.01,2013-12-05 17:41:00,
2013-12-05 11:42:00,18.7,-11.3,29.26,North,0,2.7,3.6,25,0.00,,---,0.00,VWS V14.01,2013-12-05 17:42:00,
2013-12-05 11:43:00,18.7,-11.3,29.26,SW,227,2.7,2.7,25,0.00,,---,0.00,VWS V14.01,2013-12-05 17:43:00,
2013-12-05 11:46:00,18.9,-11.1,29.26,NW,317,4.0,4.0,25,0.00,,---,0.00,VWS V14.01,2013-12-05 17:46:00,
2013-12-05 11:47:00,19.0,-11.0,29.26,NNE,14,2.7,3.1,25,0.00,,---,0.00,VWS V14.01,2013-12-05 17:47:00,
2013-12-05 11:48:00,19.0,-11.0,29.26,NW,322,2.7,2.7,25,0.00,,---,0.00,VWS V14.01,2013-12-05 17:48:00,
2013-12-05 11:51:00,19.0,-11.0,29.26,SW,216,2.2,2.7,25,0.00,,---,0.00,VWS V14.01,2013-12-05 17:51:00,
2013-12-05 11:52:00,19.0,-11.0,29.26,SW,233,2.2,3.1,25,0.00,,---,0.00,VWS V14.01,2013-12-05 17:52:00,
2013-12-05 11:53:00,19.0,-11.0,29.26,SW,232,3.6,3.6,25,0.00,,---,0.00,VWS V14.01,2013-12-05 17:53:00,
2013-12-05 11:56:00,19.2,-10.8,29.26,North,350,4.9,4.9,25,0.00,,---,0.00,VWS V14.01,2013-12-05 17:56:00,
2013-12-05 11:58:00,19.2,-10.8,29.26,SSE,156,2.7,4.9,25,0.00,,---,0.00,VWS V14.01,2013-12-05 17:58:00,
2013-12-05 12:01:00,19.4,-10.7,29.26,WSW,250,3.1,3.1,25,0.00,,---,0.00,VWS V14.01,2013-12-05 18:01:00,
2013-12-05 12:02:00,19.4,-10.7,29.26,South,175,2.7,4.0,25,0.00,,---,0.00,VWS V14.01,2013-12-05 18:02:00,
2013-12-05 12:03:00,19.4,-10.7,29.26,WNW,298,2.7,2.7,25,0.00,,---,0.00,VWS V14.01,2013-12-05 18:03:00,
2013-12-05 12:06:00,19.4,-10.7,29.26,SW,224,3.1,3.1,25,0.00,,---,0.00,VWS V14.01,2013-12-05 18:06:00,
2013-12-05 12:07:00,19.4,-10.7,29.26,WSW,246,4.0,4.0,25,0.00,,---,0.00,VWS V14.01,2013-12-05 18:07:00,
2013-12-05 12:08:00,19.4,-10.7,29.26,North,11,3.6,3.6,25,0.00,,---,0.00,VWS V14.01,2013-12-05 18:08:00,
2013-12-05 12:11:00,19.4,-10.7,29.26,NNE,17,2.7,4.9,25,0.00,,---,0.00,VWS V14.01,2013-12-05 18:11:00,
2013-12-05 12:12:00,19.4,-10.7,29.26,North,353,3.1,3.6,25,0.00,,---,0.00,VWS V14.01,2013-12-05 18:12:00,
2013-12-05 12:13:00,19.6,-10.5,29.26,North,357,4.5,5.4,25,0.00,,---,0.00,VWS V14.01,2013-12-05 18:13:00,
2013-12-05 12:16:00,19.6,-10.5,29.26,NNW,332,0.0,4.0,25,0.00,,---,0.00,VWS V14.01,2013-12-05 18:16:00,
2013-12-05 12:17:00,19.6,-10.5,29.26,NNE,26,5.8,5.8,25,0.00,,---,0.00,VWS V14.01,2013-12-05 18:17:00,
2013-12-05 12:18:00,19.6,-10.5,29.26,NNW,331,2.7,3.6,25,0.00,,---,0.00,VWS V14.01,2013-12-05 18:18:00,
2013-12-05 12:19:00,19.6,-10.5,29.26,NE,56,7.6,7.6,25,0.00,,---,0.00,VWS V14.01,2013-12-05 18:19:00,
2013-12-05 12:21:00,19.6,-10.5,29.26,NW,319,4.0,4.0,25,0.00,,---,0.00,VWS V14.01,2013-12-05 18:21:00,
2013-12-05 12:22:00,19.6,-10.5,29.26,NNW,335,7.6,7.6,25,0.00,,---,0.00,VWS V14.01,2013-12-05 18:22:00,
2013-12-05 12:23:00,19.6,-10.5,29.26,NNE,17,2.2,3.6,25,0.00,,---,0.00,VWS V14.01,2013-12-05 18:23:00,
2013-12-05 12:24:00,19.6,-10.5,29.26,NNW,329,4.0,4.0,25,0.00,,---,0.00,VWS V14.01,2013-12-05 18:24:00,
2013-12-05 12:26:00,19.8,-10.4,29.26,West,273,0.0,4.0,25,0.00,,---,0.00,VWS V14.01,2013-12-05 18:26:00,
2013-12-05 12:27:00,19.8,-10.4,29.26,West,273,0.0,4.0,25,0.00,,---,0.00,VWS V14.01,2013-12-05 18:27:00,
2013-12-05 12:28:00,19.8,-10.4,29.26,SSE,162,0.0,3.1,25,0.00,,---,0.00,VWS V14.01,2013-12-05 18:28:00,
2013-12-05 12:29:00,19.8,-10.4,29.26,North,0,3.1,8.1,25,0.00,,---,0.00,VWS V14.01,2013-12-05 18:29:00,
2013-12-05 12:32:00,19.8,-10.4,29.26,NE,49,4.0,5.8,25,0.00,,---,0.00,VWS V14.01,2013-12-05 18:32:00,
2013-12-05 12:33:00,19.8,-10.4,29.26,NW,325,2.7,4.0,25,0.00,,---,0.00,VWS V14.01,2013-12-05 18:33:00,
2013-12-05 12:34:00,19.8,-10.4,29.26,North,353,4.0,5.4,25,0.00,,---,0.00,VWS V14.01,2013-12-05 18:34:00,
2013-12-05 12:37:00,19.8,-10.4,29.26,North,349,3.1,7.6,25,0.00,,---,0.00,VWS V14.01,2013-12-05 18:37:00,
2013-12-05 12:38:00,19.8,-10.4,29.26,North,10,2.7,3.1,25,0.00,,---,0.00,VWS V14.01,2013-12-05 18:38:00,
2013-12-05 12:39:00,19.8,-10.4,29.26,North,357,4.9,4.9,25,0.00,,---,0.00,VWS V14.01,2013-12-05 18:39:00,
2013-12-05 12:42:00,19.8,-10.4,29.23,NNW,335,2.7,2.7,25,0.00,,---,0.00,VWS V14.01,2013-12-05 18:42:00,
2013-12-05 12:44:00,19.8,-10.4,29.23,North,350,3.6,7.2,25,0.00,,---,0.00,VWS V14.01,2013-12-05 18:44:00,
2013-12-05 12:45:00,19.6,-10.5,29.23,North,357,2.7,4.9,25,0.00,,---,0.00,VWS V14.01,2013-12-05 18:45:00,
2013-12-05 12:47:00,19.6,-10.5,29.23,NNE,32,7.6,7.6,25,0.00,,---,0.00,VWS V14.01,2013-12-05 18:47:00,
2013-12-05 12:48:00,19.6,-10.5,29.23,NNW,340,2.7,4.0,25,0.00,,---,0.00,VWS V14.01,2013-12-05 18:48:00,
2013-12-05 12:49:00,19.6,-10.5,29.23,WNW,286,6.7,6.7,25,0.00,,---,0.00,VWS V14.01,2013-12-05 18:49:00,
2013-12-05 12:50:00,19.6,-10.5,29.23,NNW,328,6.3,6.3,25,0.00,,---,0.00,VWS V14.01,2013-12-05 18:50:00,
2013-12-05 12:52:00,19.6,-10.5,29.23,NNW,336,3.6,3.6,25,0.00,,---,0.00,VWS V14.01,2013-12-05 18:52:00,
2013-12-05 12:54:00,19.6,-10.5,29.23,NNW,338,3.1,5.8,25,0.00,,---,0.00,VWS V14.01,2013-12-05 18:54:00,
2013-12-05 12:55:00,19.4,-10.7,29.23,West,265,5.4,7.6,25,0.00,,---,0.00,VWS V14.01,2013-12-05 18:55:00,
2013-12-05 12:57:00,19.4,-10.7,29.23,North,0,3.1,3.6,25,0.00,,---,0.00,VWS V14.01,2013-12-05 18:57:00,
2013-12-05 12:58:00,19.4,-10.7,29.23,North,9,0.0,2.7,25,0.00,,---,0.00,VWS V14.01,2013-12-05 18:58:00,
2013-12-05 12:59:00,19.4,-10.7,29.23,WSW,243,5.4,5.4,25,0.00,,---,0.00,VWS V14.01,2013-12-05 18:59:00,
2013-12-05 13:00:00,19.4,-10.7,29.23,North,0,2.7,2.7,25,0.00,,---,0.00,VWS V14.01,2013-12-05 19:00:00,
2013-12-05 13:01:00,19.4,-10.7,29.23,North,353,2.7,3.6,25,0.00,,---,0.00,VWS V14.01,2013-12-05 19:01:00,
2013-12-05 13:02:00,19.4,-10.7,29.23,North,1,3.1,5.4,25,0.00,,---,0.00,VWS V14.01,2013-12-05 19:02:00,
2013-12-05 13:03:00,19.4,-10.7,29.23,NW,317,3.1,3.1,25,0.00,,---,0.00,VWS V14.01,2013-12-05 19:03:00,
2013-12-05 13:04:00,19.4,-10.7,29.23,NNW,338,2.7,4.0,25,0.00,,---,0.00,VWS V14.01,2013-12-05 19:04:00,
2013-12-05 13:05:00,19.4,-10.7,29.23,North,353,4.9,4.9,25,0.00,,---,0.00,VWS V14.01,2013-12-05 19:05:00,
2013-12-05 13:06:00,19.4,-10.7,29.23,North,357,3.1,4.9,25,0.00,,---,0.00,VWS V14.01,2013-12-05 19:06:00,
2013-12-05 13:07:00,19.6,-10.5,29.23,NW,315,3.1,5.4,25,0.00,,---,0.00,VWS V14.01,2013-12-05 19:07:00,
2013-12-05 13:08:00,19.6,-10.5,29.23,North,4,5.4,5.4,25,0.00,,---,0.00,VWS V14.01,2013-12-05 19:08:00,
2013-12-05 13:09:00,19.6,-10.5,29.23,North,7,2.7,3.1,25,0.00,,---,0.00,VWS V14.01,2013-12-05 19:09:00,
2013-12-05 13:10:00,19.6,-10.5,29.23,NNW,344,3.1,3.1,25,0.00,,---,0.00,VWS V14.01,2013-12-05 19:10:00,
2013-12-05 13:11:00,19.6,-10.5,29.23,NNE,20,0.0,5.4,25,0.00,,---,0.00,VWS V14.01,2013-12-05 19:11:00,
2013-12-05 13:12:00,19.6,-10.5,29.23,West,271,4.5,4.5,25,0.00,,---,0.00,VWS V14.01,2013-12-05 19:12:00,
2013-12-05 13:13:00,19.6,-10.5,29.23,NNE,21,0.0,4.9,25,0.00,,---,0.00,VWS V14.01,2013-12-05 19:13:00,
2013-12-05 13:14:00,19.6,-10.5,29.23,North,357,2.7,3.6,25,0.00,,---,0.00,VWS V14.01,2013-12-05 19:14:00,
2013-12-05 13:15:00,19.6,-10.5,29.23,North,357,2.7,3.6,25,0.00,,---,0.00,VWS V14.01,2013-12-05 19:15:00,
2013-12-05 13:16:00,19.8,-10.4,29.23,North,357,3.1,5.4,25,0.00,,---,0.00,VWS V14.01,2013-12-05 19:16:00,
2013-12-05 13:17:00,19.8,-10.4,29.23,North,4,4.0,6.3,25,0.00,,---,0.00,VWS V14.01,2013-12-05 19:17:00,
2013-12-05 13:19:00,19.8,-10.4,29.23,WNW,298,3.1,5.4,25,0.00,,---,0.00,VWS V14.01,2013-12-05 19:19:00,
2013-12-05 13:20:00,19.8,-10.4,29.23,SSW,192,3.6,7.2,25,0.00,,---,0.00,VWS V14.01,2013-12-05 19:20:00,
2013-12-05 13:21:00,19.6,-10.5,29.23,NW,324,3.1,4.9,25,0.00,,---,0.00,VWS V14.01,2013-12-05 19:21:00,
2013-12-05 13:22:00,19.6,-10.5,29.23,North,0,2.2,3.1,25,0.00,,---,0.00,VWS V14.01,2013-12-05 19:22:00,
2013-12-05 13:25:00,19.6,-10.5,29.23,NW,314,3.6,3.6,25,0.00,,---,0.00,VWS V14.01,2013-12-05 19:25:00,
2013-12-05 13:26:00,19.6,-10.5,29.23,NNW,338,3.6,3.6,25,0.00,,---,0.00,VWS V14.01,2013-12-05 19:26:00,
2013-12-05 13:27:00,19.6,-10.5,29.23,NNW,341,0.0,3.6,25,0.00,,---,0.00,VWS V14.01,2013-12-05 19:27:00,
2013-12-05 13:30:00,19.8,-10.4,29.23,North,0,3.1,4.9,25,0.00,,---,0.00,VWS V14.01,2013-12-05 19:30:00,
2013-12-05 13:31:00,19.8,-10.4,29.23,West,262,2.2,2.7,25,0.00,,---,0.00,VWS V14.01,2013-12-05 19:31:00,
2013-12-05 13:32:00,19.8,-10.4,29.23,NNW,337,7.6,7.6,25,0.00,,---,0.00,VWS V14.01,2013-12-05 19:32:00,
2013-12-05 13:35:00,19.6,-10.5,29.23,NNW,348,0.0,0.0,25,0.00,,---,0.00,VWS V14.01,2013-12-05 19:35:00,
2013-12-05 13:36:00,19.6,-10.5,29.23,NW,312,2.2,4.0,25,0.00,,---,0.00,VWS V14.01,2013-12-05 19:36:00,
2013-12-05 13:37:00,19.6,-10.5,29.23,WNW,291,5.4,5.4,25,0.00,,---,0.00,VWS V14.01,2013-12-05 19:37:00,
2013-12-05 13:40:00,19.6,-10.5,29.21,NNW,333,2.7,2.7,25,0.00,,---,0.00,VWS V14.01,2013-12-05 19:40:00,
2013-12-05 13:41:00,19.6,-10.5,29.21,North,0,2.7,3.1,25,0.00,,---,0.00,VWS V14.01,2013-12-05 19:41:00,
2013-12-05 13:42:00,19.6,-10.5,29.21,NNE,19,2.7,2.7,25,0.00,,---,0.00,VWS V14.01,2013-12-05 19:42:00,
2013-12-05 13:43:00,19.6,-10.5,29.21,NNW,340,4.0,4.0,25,0.00,,---,0.00,VWS V14.01,2013-12-05 19:43:00,
2013-12-05 13:45:00,19.6,-10.5,29.21,North,357,2.7,2.7,25,0.00,,---,0.00,VWS V14.01,2013-12-05 19:45:00,
2013-12-05 13:46:00,19.6,-10.5,29.21,North,353,5.4,5.4,25,0.00,,---,0.00,VWS V14.01,2013-12-05 19:46:00,
2013-12-05 13:47:00,19.6,-10.5,29.21,NE,35,4.0,5.8,25,0.00,,---,0.00,VWS V14.01,2013-12-05 19:47:00,
2013-12-05 13:48:00,19.8,-10.4,29.21,North,353,2.7,3.1,25,0.00,,---,0.00,VWS V14.01,2013-12-05 19:48:00,
2013-12-05 13:50:00,19.8,-10.4,29.21,North,353,2.7,3.1,25,0.00,,---,0.00,VWS V14.01,2013-12-05 19:50:00,
2013-12-05 13:51:00,19.8,-10.4,29.21,NNW,344,0.0,0.0,25,0.00,,---,0.00,VWS V14.01,2013-12-05 19:51:00,
2013-12-05 13:52:00,19.8,-10.4,29.21,NNW,344,0.0,0.0,25,0.00,,---,0.00,VWS V14.01,2013-12-05 19:52:00,
2013-12-05 13:53:00,19.8,-10.4,29.21,NE,40,3.6,6.3,25,0.00,,---,0.00,VWS V14.01,2013-12-05 19:53:00,
2013-12-05 13:55:00,19.8,-10.4,29.23,NW,326,3.1,3.1,25,0.00,,---,0.00,VWS V14.01,2013-12-05 19:55:00,
2013-12-05 13:56:00,19.8,-10.4,29.23,NNW,329,2.7,3.1,25,0.00,,---,0.00,VWS V14.01,2013-12-05 19:56:00,
2013-12-05 13:57:00,19.8,-10.4,29.23,North,0,2.7,2.7,25,0.00,,---,0.00,VWS V14.01,2013-12-05 19:57:00,
2013-12-05 13:58:00,19.8,-10.4,29.23,NNW,333,3.1,3.1,25,0.00,,---,0.00,VWS V14.01,2013-12-05 19:58:00,
2013-12-05 14:01:00,19.8,-10.4,29.23,NW,304,5.4,5.4,25,0.00,,---,0.00,VWS V14.01,2013-12-05 20:01:00,
2013-12-05 14:02:00,19.8,-10.4,29.23,North,357,2.7,2.7,25,0.00,,---,0.00,VWS V14.01,2013-12-05 20:02:00,
2013-12-05 14:03:00,19.8,-10.4,29.23,NW,326,3.6,3.6,25,0.00,,---,0.00,VWS V14.01,2013-12-05 20:03:00,
2013-12-05 14:06:00,19.8,-10.4,29.23,North,350,4.0,4.9,25,0.00,,---,0.00,VWS V14.01,2013-12-05 20:06:00,
2013-12-05 14:07:00,19.8,-10.4,29.23,North,357,4.0,4.0,25,0.00,,---,0.00,VWS V14.01,2013-12-05 20:07:00,
2013-12-05 14:08:00,19.8,-10.4,29.23,North,350,3.1,4.0,25,0.00,,---,0.00,VWS V14.01,2013-12-05 20:08:00,
2013-12-05 14:11:00,19.8,-10.4,29.21,NNW,343,2.7,5.4,25,0.00,,---,0.00,VWS V14.01,2013-12-05 20:11:00,
2013-12-05 14:12:00,19.8,-10.4,29.21,West,265,4.0,4.0,25,0.00,,---,0.00,VWS V14.01,2013-12-05 20:12:00,
2013-12-05 14:13:00,19.8,-10.4,29.21,NNW,327,3.6,4.0,25,0.00,,---,0.00,VWS V14.01,2013-12-05 20:13:00,
2013-12-05 14:16:00,19.6,-10.5,29.21,SSW,209,0.0,2.7,25,0.00,,---,0.00,VWS V14.01,2013-12-05 20:16:00,
2013-12-05 14:17:00,19.6,-10.5,29.21,NNW,340,3.6,3.6,25,0.00,,---,0.00,VWS V14.01,2013-12-05 20:17:00,
2013-12-05 14:18:00,19.6,-10.5,29.21,SW,232,2.7,3.6,25,0.00,,---,0.00,VWS V14.01,2013-12-05 20:18:00,
2013-12-05 14:21:00,19.6,-10.5,29.21,North,0,3.1,3.6,25,0.00,,---,0.00,VWS V14.01,2013-12-05 20:21:00,
2013-12-05 14:22:00,19.6,-10.5,29.21,North,353,3.1,3.6,25,0.00,,---,0.00,VWS V14.01,2013-12-05 20:22:00,
2013-12-05 14:23:00,19.6,-10.5,29.21,North,0,3.1,3.1,25,0.00,,---,0.00,VWS V14.01,2013-12-05 20:23:00,
2013-12-05 14:27:00,19.6,-10.5,29.23,NW,315,0.0,0.0,25,0.00,,---,0.00,VWS V14.01,2013-12-05 20:27:00,
2013-12-05 14:28:00,19.6,-10.5,29.23,NW,325,0.0,0.0,25,0.00,,---,0.00,VWS V14.01,2013-12-05 20:28:00,
2013-12-05 14:32:00,19.6,-10.5,29.23,NNW,343,3.1,3.6,25,0.00,,---,0.00,VWS V14.01,2013-12-05 20:32:00,
2013-12-05 14:33:00,19.6,-10.5,29.23,NNE,19,0.0,3.6,25,0.00,,---,0.00,VWS V14.01,2013-12-05 20:33:00,
2013-12-05 14:37:00,19.6,-10.5,29.23,North,3,0.0,3.6,25,0.00,,---,0.00,VWS V14.01,2013-12-05 20:37:00,
2013-12-05 14:38:00,19.6,-10.5,29.23,North,349,0.0,2.7,25,0.00,,---,0.00,VWS V14.01,2013-12-05 20:38:00,
2013-12-05 14:42:00,19.6,-10.5,29.23,NW,318,0.0,2.7,25,0.00,,---,0.00,VWS V14.01,2013-12-05 20:42:00,
2013-12-05 14:43:00,19.6,-10.5,29.23,North,357,0.0,2.7,25,0.00,,---,0.00,VWS V14.01,2013-12-05 20:43:00,
2013-12-05 14:47:00,19.6,-10.5,29.23,NW,313,0.0,2.7,25,0.00,,---,0.00,VWS V14.01,2013-12-05 20:47:00,
2013-12-05 14:48:00,19.6,-10.5,29.23,NW,313,0.0,0.0,25,0.00,,---,0.00,VWS V14.01,2013-12-05 20:48:00,
2013-12-05 14:49:00,19.6,-10.5,29.23,NW,313,0.0,0.0,25,0.00,,---,0.00,VWS V14.01,2013-12-05 20:49:00,
2013-12-05 14:52:00,19.6,-10.5,29.23,NW,320,2.7,4.9,25,0.00,,---,0.00,VWS V14.01,2013-12-05 20:52:00,
2013-12-05 14:54:00,19.6,-10.5,29.23,North,11,0.0,2.2,25,0.00,,---,0.00,VWS V14.01,2013-12-05 20:54:00,
2013-12-05 14:58:00,19.6,-10.5,29.23,NNW,335,2.7,3.1,25,0.00,,---,0.00,VWS V14.01,2013-12-05 20:58:00,
2013-12-05 14:59:00,19.6,-10.5,29.23,NNW,342,0.0,2.2,25,0.00,,---,0.00,VWS V14.01,2013-12-05 20:59:00,
2013-12-05 15:03:00,19.6,-10.5,29.23,NNW,327,5.4,5.4,25,0.00,,---,0.00,VWS V14.01,2013-12-05 21:03:00,
2013-12-05 15:04:00,19.8,-10.4,29.23,North,0,4.5,5.4,25,0.00,,---,0.00,VWS V14.01,2013-12-05 21:04:00,
2013-12-05 15:08:00,19.6,-10.5,29.23,North,2,0.0,3.1,25,0.00,,---,0.00,VWS V14.01,2013-12-05 21:08:00,
2013-12-05 15:09:00,19.6,-10.5,29.23,North,11,2.7,3.1,25,0.00,,---,0.00,VWS V14.01,2013-12-05 21:09:00,
2013-12-05 15:10:00,19.6,-10.5,29.23,NNW,332,3.6,4.9,25,0.00,,---,0.00,VWS V14.01,2013-12-05 21:10:00,
2013-12-05 15:13:00,19.6,-10.5,29.23,North,353,3.1,3.1,25,0.00,,---,0.00,VWS V14.01,2013-12-05 21:13:00,
2013-12-05 15:14:00,19.6,-10.5,29.23,West,279,3.6,3.6,25,0.00,,---,0.00,VWS V14.01,2013-12-05 21:14:00,
2013-12-05 15:15:00,19.6,-10.5,29.23,NNW,343,2.2,3.6,25,0.00,,---,0.00,VWS V14.01,2013-12-05 21:15:00,
2013-12-05 15:18:00,19.6,-10.5,29.23,North,353,2.7,2.7,25,0.00,,---,0.00,VWS V14.01,2013-12-05 21:18:00,
2013-12-05 15:19:00,19.6,-10.5,29.23,North,0,2.2,2.7,25,0.00,,---,0.00,VWS V14.01,2013-12-05 21:19:00,
2013-12-05 15:20:00,19.6,-10.5,29.23,North,0,2.2,2.7,25,0.00,,---,0.00,VWS V14.01,2013-12-05 21:20:00,
2013-12-05 15:23:00,19.6,-10.5,29.23,NW,314,4.0,4.0,25,0.00,,---,0.00,VWS V14.01,2013-12-05 21:23:00,
2013-12-05 15:24:00,19.6,-10.5,29.23,North,0,2.7,2.7,25,0.00,,---,0.00,VWS V14.01,2013-12-05 21:24:00,
2013-12-05 15:25:00,19.6,-10.5,29.23,NNW,339,4.0,4.0,25,0.00,,---,0.00,VWS V14.01,2013-12-05 21:25:00,
2013-12-05 15:26:00,19.6,-10.5,29.23,NNW,348,0.0,3.1,25,0.00,,---,0.00,VWS V14.01,2013-12-05 21:26:00,
2013-12-05 15:28:00,19.6,-10.5,29.23,North,353,4.0,4.0,25,0.00,,---,0.00,VWS V14.01,2013-12-05 21:28:00,
2013-12-05 15:29:00,19.6,-10.5,29.23,North,357,2.2,2.7,25,0.00,,---,0.00,VWS V14.01,2013-12-05 21:29:00,
2013-12-05 15:30:00,19.6,-10.5,29.23,North,5,2.2,4.9,25,0.00,,---,0.00,VWS V14.01,2013-12-05 21:30:00,
2013-12-05 15:32:00,19.6,-10.5,29.23,NW,313,3.6,5.4,25,0.00,,---,0.00,VWS V14.01,2013-12-05 21:32:00,
2013-12-05 15:34:00,19.6,-10.5,29.23,North,350,2.7,3.1,25,0.00,,---,0.00,VWS V14.01,2013-12-05 21:34:00,
2013-12-05 15:35:00,19.6,-10.5,29.23,North,357,3.1,3.6,25,0.00,,---,0.00,VWS V14.01,2013-12-05 21:35:00,
2013-12-05 15:36:00,19.6,-10.5,29.23,North,357,3.1,3.6,25,0.00,,---,0.00,VWS V14.01,2013-12-05 21:36:00,
2013-12-05 15:37:00,19.6,-10.5,29.23,North,0,3.1,7.2,25,0.00,,---,0.00,VWS V14.01,2013-12-05 21:37:00,
2013-12-05 15:39:00,19.6,-10.5,29.23,North,353,3.6,3.6,25,0.00,,---,0.00,VWS V14.01,2013-12-05 21:39:00,
2013-12-05 15:40:00,19.6,-10.5,29.23,NW,318,5.4,5.8,25,0.00,,---,0.00,VWS V14.01,2013-12-05 21:40:00,
2013-12-05 15:41:00,19.6,-10.5,29.23,NW,319,5.4,5.4,25,0.00,,---,0.00,VWS V14.01,2013-12-05 21:41:00,
2013-12-05 15:42:00,19.6,-10.5,29.23,NW,324,3.6,3.6,25,0.00,,---,0.00,VWS V14.01,2013-12-05 21:42:00,
2013-12-05 15:44:00,19.6,-10.5,29.23,NW,313,4.9,6.7,25,0.00,,---,0.00,VWS V14.01,2013-12-05 21:44:00,
2013-12-05 15:45:00,19.6,-10.5,29.23,NW,304,2.7,4.9,25,0.00,,---,0.00,VWS V14.01,2013-12-05 21:45:00,
2013-12-05 15:46:00,19.6,-10.5,29.23,NW,313,3.6,3.6,25,0.00,,---,0.00,VWS V14.01,2013-12-05 21:46:00,
2013-12-05 15:47:00,19.6,-10.5,29.23,NE,44,3.1,3.1,25,0.00,,---,0.00,VWS V14.01,2013-12-05 21:47:00,
2013-12-05 15:49:00,19.6,-10.5,29.23,WNW,285,2.7,2.7,25,0.00,,---,0.00,VWS V14.01,2013-12-05 21:49:00,
2013-12-05 15:50:00,19.6,-10.5,29.23,NNW,330,0.0,2.7,25,0.00,,---,0.00,VWS V14.01,2013-12-05 21:50:00,
2013-12-05 15:51:00,19.6,-10.5,29.23,North,0,0.0,5.8,25,0.00,,---,0.00,VWS V14.01,2013-12-05 21:51:00,
2013-12-05 15:52:00,19.6,-10.5,29.23,NNW,336,0.0,2.2,25,0.00,,---,0.00,VWS V14.01,2013-12-05 21:52:00,
2013-12-05 15:53:00,19.6,-10.5,29.23,NNW,346,3.6,3.6,25,0.00,,---,0.00,VWS V14.01,2013-12-05 21:53:00,
2013-12-05 15:54:00,19.6,-10.5,29.23,NNW,346,2.7,2.7,25,0.00,,---,0.00,VWS V14.01,2013-12-05 21:54:00,
2013-12-05 15:55:00,19.6,-10.5,29.23,NNW,344,2.2,2.2,25,0.00,,---,0.00,VWS V14.01,2013-12-05 21:55:00,
2013-12-05 15:56:00,19.6,-10.5,29.23,North,357,2.2,2.2,25,0.00,,---,0.00,VWS V14.01,2013-12-05 21:56:00,
2013-12-05 15:57:00,19.6,-10.5,29.23,ENE,60,0.0,0.0,25,0.00,,---,0.00,VWS V14.01,2013-12-05 21:57:00,
2013-12-05 15:58:00,19.6,-10.5,29.23,NNW,327,2.2,2.7,25,0.00,,---,0.00,VWS V14.01,2013-12-05 21:58:00,
2013-12-05 15:59:00,19.6,-10.5,29.23,NW,324,3.6,3.6,25,0.00,,---,0.00,VWS V14.01,2013-12-05 21:59:00,
2013-12-05 16:00:00,19.6,-10.5,29.23,NW,320,2.7,4.0,25,0.00,,---,0.00,VWS V14.01,2013-12-05 22:00:00,
2013-12-05 16:01:00,19.6,-10.5,29.23,NNW,346,2.7,2.7,25,0.00,,---,0.00,VWS V14.01,2013-12-05 22:01:00,
2013-12-05 16:02:00,19.6,-10.5,29.23,WNW,285,2.7,2.7,25,0.00,,---,0.00,VWS V14.01,2013-12-05 22:02:00,
2013-12-05 16:03:00,19.6,-10.5,29.23,NE,34,3.6,3.6,25,0.00,,---,0.00,VWS V14.01,2013-12-05 22:03:00,
2013-12-05 16:04:00,19.6,-10.5,29.23,North,0,2.7,2.7,25,0.00,,---,0.00,VWS V14.01,2013-12-05 22:04:00,
2013-12-05 16:05:00,19.6,-10.5,29.23,North,0,2.7,2.7,25,0.00,,---,0.00,VWS V14.01,2013-12-05 22:05:00,
2013-12-05 16:06:00,19.6,-10.5,29.23,North,0,2.7,2.7,25,0.00,,---,0.00,VWS V14.01,2013-12-05 22:06:00,
2013-12-05 16:07:00,19.6,-10.5,29.23,NNE,22,2.7,2.7,25,0.00,,---,0.00,VWS V14.01,2013-12-05 22:07:00,
2013-12-05 16:08:00,19.6,-10.5,29.23,NNE,22,2.7,2.7,25,0.00,,---,0.00,VWS V14.01,2013-12-05 22:08:00,
2013-12-05 16:09:00,19.6,-10.5,29.23,North,5,3.6,3.6,25,0.00,,---,0.00,VWS V14.01,2013-12-05 22:09:00,
2013-12-05 16:10:00,19.6,-10.5,29.23,NNW,331,2.2,3.6,25,0.00,,---,0.00,VWS V14.01,2013-12-05 22:10:00,
2013-12-05 16:11:00,19.6,-10.5,29.23,North,1,0.0,2.2,25,0.00,,---,0.00,VWS V14.01,2013-12-05 22:11:00,
2013-12-05 16:12:00,19.6,-10.5,29.23,NNW,341,0.0,0.0,25,0.00,,---,0.00,VWS V14.01,2013-12-05 22:12:00,
2013-12-05 16:13:00,19.6,-10.5,29.23,NNW,341,0.0,0.0,25,0.00,,---,0.00,VWS V14.01,2013-12-05 22:13:00,
2013-12-05 16:15:00,19.6,-10.5,29.23,NNW,330,2.2,2.2,25,0.00,,---,0.00,VWS V14.01,2013-12-05 22:15:00,
2013-12-05 16:16:00,19.6,-10.5,29.23,NW,316,3.1,3.1,25,0.00,,---,0.00,VWS V14.01,2013-12-05 22:16:00,
2013-12-05 16:18:00,19.6,-10.5,29.23,NW,316,3.1,3.1,25,0.00,,---,0.00,VWS V14.01,2013-12-05 22:18:00,
2013-12-05 16:19:00,19.6,-10.5,29.23,NW,316,3.1,3.1,25,0.00,,---,0.00,VWS V14.01,2013-12-05 22:19:00,
2013-12-05 16:20:00,19.6,-10.5,29.23,NW,316,3.1,3.1,25,0.00,,---,0.00,VWS V14.01,2013-12-05 22:20:00,
2013-12-05 16:21:00,19.6,-10.5,29.23,WNW,301,3.1,3.6,25,0.00,,---,0.00,VWS V14.01,2013-12-05 22:21:00,
2013-12-05 16:23:00,19.6,-10.5,29.23,NW,307,4.0,4.0,25,0.00,,---,0.00,VWS V14.01,2013-12-05 22:23:00,
2013-12-05 16:24:00,19.6,-10.5,29.23,NW,307,4.0,4.0,25,0.00,,---,0.00,VWS V14.01,2013-12-05 22:24:00,
2013-12-05 16:25:00,19.6,-10.5,29.23,NNW,348,2.2,4.0,25,0.00,,---,0.00,VWS V14.01,2013-12-05 22:25:00,
2013-12-05 16:27:00,19.6,-10.5,29.23,NNW,348,2.2,2.2,25,0.00,,---,0.00,VWS V14.01,2013-12-05 22:27:00,
2013-12-05 16:28:00,19.6,-10.5,29.26,NNW,348,2.2,2.2,25,0.00,,---,0.00,VWS V14.01,2013-12-05 22:28:00,
2013-12-05 16:29:00,19.6,-10.5,29.26,NW,310,3.1,3.1,25,0.00,,---,0.00,VWS V14.01,2013-12-05 22:29:00,
2013-12-05 16:30:00,19.6,-10.5,29.26,North,4,0.0,3.1,25,0.00,,---,0.00,VWS V14.01,2013-12-05 22:30:00,
2013-12-05 16:32:00,19.6,-10.5,29.26,North,4,0.0,0.0,25,0.00,,---,0.00,VWS V14.01,2013-12-05 22:32:00,
2013-12-05 16:33:00,19.6,-10.5,29.26,West,276,2.7,2.7,25,0.00,,---,0.00,VWS V14.01,2013-12-05 22:33:00,
2013-12-05 16:34:00,19.6,-10.5,29.26,West,276,2.7,2.7,25,0.00,,---,0.00,VWS V14.01,2013-12-05 22:34:00,
2013-12-05 16:35:00,19.6,-10.5,29.26,NNW,344,2.7,2.7,25,0.00,,---,0.00,VWS V14.01,2013-12-05 22:35:00,
2013-12-05 16:37:00,19.6,-10.5,29.26,NNW,344,0.0,0.0,25,0.00,,---,0.00,VWS V14.01,2013-12-05 22:37:00,
2013-12-05 16:38:00,19.6,-10.5,29.26,NNW,348,2.2,2.2,25,0.00,,---,0.00,VWS V14.01,2013-12-05 22:38:00,
2013-12-05 16:39:00,19.6,-10.5,29.26,NNW,348,2.7,2.7,25,0.00,,---,0.00,VWS V14.01,2013-12-05 22:39:00,
2013-12-05 16:40:00,19.6,-10.5,29.26,NNW,348,2.7,2.7,25,0.00,,---,0.00,VWS V14.01,2013-12-05 22:40:00,
2013-12-05 16:41:00,19.6,-10.5,29.26,NNW,348,2.7,2.7,25,0.00,,---,0.00,VWS V14.01,2013-12-05 22:41:00,
2013-12-05 16:42:00,19.6,-10.5,29.26,NW,310,3.6,3.6,25,0.00,,---,0.00,VWS V14.01,2013-12-05 22:42:00,
2013-12-05 16:44:00,19.6,-10.5,29.26,North,357,3.1,3.1,25,0.00,,---,0.00,VWS V14.01,2013-12-05 22:44:00,
2013-12-05 16:45:00,19.6,-10.5,29.26,North,353,0.0,3.1,25,0.00,,---,0.00,VWS V14.01,2013-12-05 22:45:00,
2013-12-05 16:46:00,19.6,-10.5,29.26,North,353,0.0,0.0,25,0.00,,---,0.00,VWS V14.01,2013-12-05 22:46:00,
2013-12-05 16:47:00,19.6,-10.5,29.26,North,0,4.0,4.0,25,0.00,,---,0.00,VWS V14.01,2013-12-05 22:47:00,
2013-12-05 16:49:00,19.6,-10.5,29.26,NNE,13,2.7,4.0,25,0.00,,---,0.00,VWS V14.01,2013-12-05 22:49:00,
2013-12-05 16:50:00,19.6,-10.5,29.26,North,0,2.7,2.7,25,0.00,,---,0.00,VWS V14.01,2013-12-05 22:50:00,
2013-12-05 16:51:00,19.6,-10.5,29.26,North,0,2.7,2.7,25,0.00,,---,0.00,VWS V14.01,2013-12-05 22:51:00,
2013-12-05 16:53:00,19.6,-10.5,29.26,NW,308,3.1,3.1,25,0.00,,---,0.00,VWS V14.01,2013-12-05 22:53:00,
2013-12-05 16:54:00,19.6,-10.5,29.26,WNW,295,3.6,3.6,25,0.00,,---,0.00,VWS V14.01,2013-12-05 22:54:00,
2013-12-05 16:55:00,19.6,-10.5,29.26,WNW,295,3.6,3.6,25,0.00,,---,0.00,VWS V14.01,2013-12-05 22:55:00,
2013-12-05 16:56:00,19.6,-10.5,29.26,WNW,295,3.6,3.6,25,0.00,,---,0.00,VWS V14.01,2013-12-05 22:56:00,
2013-12-05 16:58:00,19.6,-10.5,29.26,NNW,342,2.2,3.1,25,0.00,,---,0.00,VWS V14.01,2013-12-05 22:58:00,
2013-12-05 17:00:00,19.4,-10.7,29.26,NNW,346,4.0,4.0,25,0.00,,---,0.00,VWS V14.01,2013-12-05 23:00:00,
2013-12-05 17:01:00,19.4,-10.7,29.26,WNW,298,3.1,4.0,25,0.00,,---,0.00,VWS V14.01,2013-12-05 23:01:00,
2013-12-05 17:02:00,19.4,-10.7,29.26,WNW,286,2.7,3.1,25,0.00,,---,0.00,VWS V14.01,2013-12-05 23:02:00,
2013-12-05 17:03:00,19.4,-10.7,29.26,WNW,286,2.7,2.7,25,0.00,,---,0.00,VWS V14.01,2013-12-05 23:03:00,
2013-12-05 17:05:00,19.4,-10.7,29.26,NNW,329,3.6,3.6,25,0.00,,---,0.00,VWS V14.01,2013-12-05 23:05:00,
2013-12-05 17:06:00,19.4,-10.7,29.26,NNW,329,3.6,3.6,25,0.00,,---,0.00,VWS V14.01,2013-12-05 23:06:00,
2013-12-05 17:07:00,19.4,-10.7,29.26,NNW,329,3.6,3.6,25,0.00,,---,0.00,VWS V14.01,2013-12-05 23:07:00,
2013-12-05 17:08:00,19.4,-10.7,29.26,North,5,3.1,3.1,25,0.00,,---,0.00,VWS V14.01,2013-12-05 23:08:00,
2013-12-05 17:10:00,19.4,-10.7,29.26,NNW,335,0.0,3.1,25,0.00,,---,0.00,VWS V14.01,2013-12-05 23:10:00,
2013-12-05 17:11:00,19.4,-10.7,29.26,NNE,18,5.8,5.8,25,0.00,,---,0.00,VWS V14.01,2013-12-05 23:11:00,
2013-12-05 17:12:00,19.4,-10.7,29.26,NNE,18,5.8,5.8,25,0.00,,---,0.00,VWS V14.01,2013-12-05 23:12:00,
2013-12-05 17:13:00,19.4,-10.7,29.26,NNE,18,5.8,5.8,25,0.00,,---,0.00,VWS V14.01,2013-12-05 23:13:00,
2013-12-05 17:16:00,19.4,-10.7,29.26,West,263,2.7,2.7,25,0.00,,---,0.00,VWS V14.01,2013-12-05 23:16:00,
2013-12-05 17:17:00,19.4,-10.7,29.26,NNW,333,4.0,4.0,25,0.00,,---,0.00,VWS V14.01,2013-12-05 23:17:00,
2013-12-05 17:18:00,19.4,-10.7,29.26,North,0,2.7,2.7,25,0.00,,---,0.00,VWS V14.01,2013-12-05 23:18:00,
2013-12-05 17:21:00,19.4,-10.7,29.26,North,0,0.0,2.7,25,0.00,,---,0.00,VWS V14.01,2013-12-05 23:21:00,
2013-12-05 17:22:00,19.4,-10.7,29.26,North,0,0.0,0.0,25,0.00,,---,0.00,VWS V14.01,2013-12-05 23:22:00,
2013-12-05 17:23:00,19.4,-10.7,29.26,North,0,0.0,0.0,25,0.00,,---,0.00,VWS V14.01,2013-12-05 23:23:00,
2013-12-05 17:26:00,19.4,-10.7,29.26,NNW,343,2.7,2.7,25,0.00,,---,0.00,VWS V14.01,2013-12-05 23:26:00,
2013-12-05 17:27:00,19.4,-10.7,29.26,NNW,343,2.7,2.7,25,0.00,,---,0.00,VWS V14.01,2013-12-05 23:27:00,
2013-12-05 17:29:00,19.4,-10.7,29.26,WNW,287,0.0,2.7,25,0.00,,---,0.00,VWS V14.01,2013-12-05 23:29:00,
2013-12-05 17:31:00,19.4,-10.7,29.26,West,272,3.6,3.6,25,0.00,,---,0.00,VWS V14.01,2013-12-05 23:31:00,
2013-12-05 17:32:00,19.4,-10.7,29.26,West,272,3.6,3.6,25,0.00,,---,0.00,VWS V14.01,2013-12-05 23:32:00,
2013-12-05 17:33:00,19.4,-10.7,29.26,West,272,3.6,3.6,25,0.00,,---,0.00,VWS V14.01,2013-12-05 23:33:00,
2013-12-05 17:34:00,19.4,-10.7,29.26,West,272,3.6,3.6,25,0.00,,---,0.00,VWS V14.01,2013-12-05 23:34:00,
2013-12-05 17:37:00,19.4,-10.7,29.26,NNW,329,2.7,3.1,25,0.00,,---,0.00,VWS V14.01,2013-12-05 23:37:00,
2013-12-05 17:38:00,19.4,-10.7,29.26,NNW,342,3.1,3.1,25,0.00,,---,0.00,VWS V14.01,2013-12-05 23:38:00,
2013-12-05 17:39:00,19.4,-10.7,29.26,NNW,342,3.1,3.1,25,0.00,,---,0.00,VWS V14.01,2013-12-05 23:39:00,
2013-12-05 17:42:00,19.4,-10.7,29.26,NNW,342,3.1,3.1,25,0.00,,---,0.00,VWS V14.01,2013-12-05 23:42:00,
2013-12-05 17:43:00,19.4,-10.7,29.26,NNW,327,2.7,3.1,25,0.00,,---,0.00,VWS V14.01,2013-12-05 23:43:00,
2013-12-05 17:44:00,19.4,-10.7,29.26,NNW,327,2.7,2.7,25,0.00,,---,0.00,VWS V14.01,2013-12-05 23:44:00,
2013-12-05 17:47:00,19.4,-10.7,29.26,NNW,327,2.7,2.7,25,0.00,,---,0.00,VWS V14.01,2013-12-05 23:47:00,
2013-12-05 17:48:00,19.4,-10.7,29.26,NNW,327,2.7,2.7,25,0.00,,---,0.00,VWS V14.01,2013-12-05 23:48:00,
2013-12-05 17:49:00,19.4,-10.7,29.26,NW,325,2.2,2.7,25,0.00,,---,0.00,VWS V14.01,2013-12-05 23:49:00,
2013-12-05 17:52:00,19.4,-10.7,29.26,North,349,4.0,4.0,25,0.00,,---,0.00,VWS V14.01,2013-12-05 23:52:00,
2013-12-05 17:53:00,19.4,-10.7,29.26,North,349,4.0,4.0,25,0.00,,---,0.00,VWS V14.01,2013-12-05 23:53:00,
2013-12-05 17:54:00,19.4,-10.7,29.26,North,349,4.0,4.0,25,0.00,,---,0.00,VWS V14.01,2013-12-05 23:54:00,
2013-12-05 17:57:00,19.4,-10.7,29.26,North,0,2.7,4.0,25,0.00,,---,0.00,VWS V14.01,2013-12-05 23:57:00,
2013-12-05 17:58:00,19.4,-10.7,29.26,North,0,2.7,2.7,25,0.00,,---,0.00,VWS V14.01,2013-12-05 23:58:00,
2013-12-05 17:59:00,19.4,-10.7,29.26,North,0,2.7,2.7,25,0.00,,---,0.00,VWS V14.01,2013-12-05 23:59:00,
2013-12-05 18:02:00,19.4,-10.7,29.26,North,10,0.0,0.0,25,0.00,,---,0.00,VWS V14.01,2013-12-06 00:02:00,
2013-12-05 18:03:00,19.4,-10.7,29.26,North,10,0.0,0.0,25,0.00,,---,0.00,VWS V14.01,2013-12-06 00:03:00,
2013-12-05 18:04:00,19.4,-10.7,29.26,North,2,4.0,4.0,25,0.00,,---,0.00,VWS V14.01,2013-12-06 00:04:00,
2013-12-05 18:07:00,19.4,-10.7,29.26,North,2,4.0,4.0,25,0.00,,---,0.00,VWS V14.01,2013-12-06 00:07:00,
2013-12-05 18:08:00,19.4,-10.7,29.26,North,2,4.0,4.0,25,0.00,,---,0.00,VWS V14.01,2013-12-06 00:08:00,
2013-12-05 18:09:00,19.4,-10.7,29.26,North,2,4.0,4.0,25,0.00,,---,0.00,VWS V14.01,2013-12-06 00:09:00,
2013-12-05 18:12:00,19.2,-10.8,29.26,North,2,4.0,4.0,25,0.00,,---,0.00,VWS V14.01,2013-12-06 00:12:00,
2013-12-05 18:13:00,19.2,-10.8,29.26,North,2,4.0,4.0,25,0.00,,---,0.00,VWS V14.01,2013-12-06 00:13:00,
2013-12-05 18:14:00,19.2,-10.8,29.26,North,2,4.0,4.0,25,0.00,,---,0.00,VWS V14.01,2013-12-06 00:14:00,
2013-12-05 18:17:00,19.2,-10.8,29.26,North,353,3.6,3.6,25,0.00,,---,0.00,VWS V14.01,2013-12-06 00:17:00,
2013-12-05 18:18:00,19.2,-10.8,29.26,North,353,3.6,3.6,25,0.00,,---,0.00,VWS V14.01,2013-12-06 00:18:00,
2013-12-05 18:19:00,19.2,-10.8,29.26,North,353,3.6,3.6,25,0.00,,---,0.00,VWS V14.01,2013-12-06 00:19:00,
2013-12-05 18:20:00,19.2,-10.8,29.26,North,353,3.6,3.6,25,0.00,,---,0.00,VWS V14.01,2013-12-06 00:20:00,
2013-12-05 18:23:00,19.2,-10.8,29.26,NNW,329,0.0,0.0,25,0.00,,---,0.00,VWS V14.01,2013-12-06 00:23:00,
2013-12-05 18:24:00,19.2,-10.8,29.26,North,353,4.0,4.0,25,0.00,,---,0.00,VWS V14.01,2013-12-06 00:24:00,
2013-12-05 18:25:00,19.2,-10.8,29.26,North,353,4.0,4.0,25,0.00,,---,0.00,VWS V14.01,2013-12-06 00:25:00,
2013-12-05 18:28:00,19.2,-10.8,29.26,North,353,4.0,4.0,25,0.00,,---,0.00,VWS V14.01,2013-12-06 00:28:00,
2013-12-05 18:29:00,19.2,-10.8,29.26,North,353,4.0,4.0,25,0.00,,---,0.00,VWS V14.01,2013-12-06 00:29:00,
2013-12-05 18:30:00,19.2,-10.8,29.26,NNW,343,2.2,4.0,25,0.00,,---,0.00,VWS V14.01,2013-12-06 00:30:00,
2013-12-05 18:33:00,19.2,-10.8,29.26,NW,307,0.0,0.0,25,0.00,,---,0.00,VWS V14.01,2013-12-06 00:33:00,
2013-12-05 18:34:00,19.2,-10.8,29.26,NW,307,0.0,0.0,25,0.00,,---,0.00,VWS V14.01,2013-12-06 00:34:00,
2013-12-05 18:35:00,19.2,-10.8,29.26,NW,307,0.0,0.0,25,0.00,,---,0.00,VWS V14.01,2013-12-06 00:35:00,
2013-12-05 18:38:00,19.2,-10.8,29.26,NW,307,0.0,0.0,25,0.00,,---,0.00,VWS V14.01,2013-12-06 00:38:00,
2013-12-05 18:39:00,19.2,-10.8,29.26,NNW,346,3.6,3.6,25,0.00,,---,0.00,VWS V14.01,2013-12-06 00:39:00,
2013-12-05 18:40:00,19.2,-10.8,29.26,NNW,346,3.6,3.6,25,0.00,,---,0.00,VWS V14.01,2013-12-06 00:40:00,
2013-12-05 18:43:00,19.2,-10.8,29.26,NNW,346,3.6,3.6,25,0.00,,---,0.00,VWS V14.01,2013-12-06 00:43:00,
2013-12-05 18:44:00,19.2,-10.8,29.26,NW,304,5.4,5.4,25,0.00,,---,0.00,VWS V14.01,2013-12-06 00:44:00,
2013-12-05 18:45:00,19.2,-10.8,29.26,North,357,5.4,5.4,25,0.00,,---,0.00,VWS V14.01,2013-12-06 00:45:00,
2013-12-05 18:48:00,19.2,-10.8,29.26,North,357,5.4,5.4,25,0.00,,---,0.00,VWS V14.01,2013-12-06 00:48:00,
2013-12-05 18:49:00,19.2,-10.8,29.26,North,357,5.4,5.4,25,0.00,,---,0.00,VWS V14.01,2013-12-06 00:49:00,
2013-12-05 18:50:00,19.0,-11.0,29.26,North,357,5.4,5.4,25,0.00,,---,0.00,VWS V14.01,2013-12-06 00:50:00,
2013-12-05 18:51:00,19.0,-11.0,29.26,North,357,5.4,5.4,25,0.00,,---,0.00,VWS V14.01,2013-12-06 00:51:00,
2013-12-05 18:53:00,19.0,-11.0,29.26,WSW,246,3.6,3.6,25,0.00,,---,0.00,VWS V14.01,2013-12-06 00:53:00,
2013-12-05 18:54:00,19.0,-11.0,29.26,North,353,4.0,4.0,25,0.00,,---,0.00,VWS V14.01,2013-12-06 00:54:00,
2013-12-05 18:55:00,19.0,-11.0,29.26,North,353,4.0,4.0,25,0.00,,---,0.00,VWS V14.01,2013-12-06 00:55:00,
2013-12-05 18:56:00,19.0,-11.0,29.26,North,353,4.0,4.0,25,0.00,,---,0.00,VWS V14.01,2013-12-06 00:56:00,
2013-12-05 18:58:00,19.0,-11.0,29.26,ENE,77,0.0,0.0,25,0.00,,---,0.00,VWS V14.01,2013-12-06 00:58:00,
2013-12-05 18:59:00,19.0,-11.0,29.26,North,0,3.6,3.6,25,0.00,,---,0.00,VWS V14.01,2013-12-06 00:59:00,
2013-12-05 19:00:00,19.0,-11.0,29.26,NNW,328,2.2,3.6,25,0.00,,---,0.00,VWS V14.01,2013-12-06 01:00:00,
2013-12-05 19:01:00,19.0,-11.0,29.26,NNW,328,2.2,2.2,25,0.00,,---,0.00,VWS V14.01,2013-12-06 01:01:00,
2013-12-05 19:03:00,19.0,-11.0,29.26,NNW,328,2.2,2.2,25,0.00,,---,0.00,VWS V14.01,2013-12-06 01:03:00,
2013-12-05 19:04:00,19.0,-11.0,29.26,NNW,328,2.2,2.2,25,0.00,,---,0.00,VWS V14.01,2013-12-06 01:04:00,
2013-12-05 19:05:00,19.0,-11.0,29.26,NNW,328,2.2,2.2,25,0.00,,---,0.00,VWS V14.01,2013-12-06 01:05:00,
2013-12-05 19:07:00,19.0,-11.0,29.26,North,8,0.0,2.2,25,0.00,,---,0.00,VWS V14.01,2013-12-06 01:07:00,
2013-12-05 19:08:00,19.0,-11.0,29.26,North,8,0.0,0.0,25,0.00,,---,0.00,VWS V14.01,2013-12-06 01:08:00,
2013-12-05 19:10:00,19.0,-11.0,29.26,NNW,341,2.7,2.7,25,0.00,,---,0.00,VWS V14.01,2013-12-06 01:10:00,
2013-12-05 19:11:00,19.0,-11.0,29.26,NNW,341,2.7,2.7,25,0.00,,---,0.00,VWS V14.01,2013-12-06 01:11:00,
2013-12-05 19:12:00,19.0,-11.0,29.26,NNW,341,2.7,2.7,25,0.00,,---,0.00,VWS V14.01,2013-12-06 01:12:00,
2013-12-05 19:14:00,19.0,-11.0,29.26,NNW,332,3.1,3.1,25,0.00,,---,0.00,VWS V14.01,2013-12-06 01:14:00,
2013-12-05 19:15:00,19.0,-11.0,29.26,NNW,332,3.1,3.1,25,0.00,,---,0.00,VWS V14.01,2013-12-06 01:15:00,
2013-12-05 19:16:00,19.0,-11.0,29.26,NNW,332,3.1,3.1,25,0.00,,---,0.00,VWS V14.01,2013-12-06 01:16:00,
2013-12-05 19:18:00,19.0,-11.0,29.26,WNW,300,3.1,3.1,25,0.00,,---,0.00,VWS V14.01,2013-12-06 01:18:00,
2013-12-05 19:19:00,19.0,-11.0,29.26,WNW,300,3.1,3.1,25,0.00,,---,0.00,VWS V14.01,2013-12-06 01:19:00,
2013-12-05 19:20:00,19.0,-11.0,29.26,NW,317,5.4,5.4,25,0.00,,---,0.00,VWS V14.01,2013-12-06 01:20:00,
2013-12-05 19:21:00,19.0,-11.0,29.26,NW,317,5.4,5.4,25,0.00,,---,0.00,VWS V14.01,2013-12-06 01:21:00,
2013-12-05 19:23:00,19.0,-11.0,29.26,NW,317,5.4,5.4,25,0.00,,---,0.00,VWS V14.01,2013-12-06 01:23:00,
2013-12-05 19:25:00,19.0,-11.0,29.29,North,0,0.0,0.0,25,0.00,,---,0.00,VWS V14.01,2013-12-06 01:25:00,
2013-12-05 19:26:00,19.0,-11.0,29.29,North,0,0.0,0.0,25,0.00,,---,0.00,VWS V14.01,2013-12-06 01:26:00,
2013-12-05 19:27:00,19.0,-11.0,29.29,NNE,13,6.3,6.3,25,0.00,,---,0.00,VWS V14.01,2013-12-06 01:27:00,
2013-12-05 19:28:00,19.0,-11.0,29.29,NNE,26,3.6,3.6,25,0.00,,---,0.00,VWS V14.01,2013-12-06 01:28:00,
2013-12-05 19:31:00,19.0,-11.0,29.29,North,6,3.1,3.1,25,0.00,,---,0.00,VWS V14.01,2013-12-06 01:31:00,
2013-12-05 19:32:00,19.0,-11.0,29.29,North,6,3.1,3.1,25,0.00,,---,0.00,VWS V14.01,2013-12-06 01:32:00,
2013-12-05 19:33:00,19.0,-11.0,29.29,North,6,3.1,3.1,25,0.00,,---,0.00,VWS V14.01,2013-12-06 01:33:00,
2013-12-05 19:36:00,19.0,-11.0,29.29,North,353,2.7,2.7,25,0.00,,---,0.00,VWS V14.01,2013-12-06 01:36:00,
2013-12-05 19:37:00,19.0,-11.0,29.29,NW,320,2.7,2.7,25,0.00,,---,0.00,VWS V14.01,2013-12-06 01:37:00,
2013-12-05 19:38:00,19.0,-11.0,29.29,NW,320,2.7,2.7,25,0.00,,---,0.00,VWS V14.01,2013-12-06 01:38:00,
2013-12-05 19:39:00,19.0,-11.0,29.29,NW,320,2.7,2.7,25,0.00,,---,0.00,VWS V14.01,2013-12-06 01:39:00,
2013-12-05 19:41:00,18.9,-11.1,29.29,North,0,3.1,3.1,25,0.00,,---,0.00,VWS V14.01,2013-12-06 01:41:00,
2013-12-05 19:42:00,18.9,-11.1,29.29,North,0,3.1,3.1,25,0.00,,---,0.00,VWS V14.01,2013-12-06 01:42:00,
2013-12-05 19:44:00,18.9,-11.1,29.29,North,0,3.1,3.1,25,0.00,,---,0.00,VWS V14.01,2013-12-06 01:44:00,
2013-12-05 19:46:00,18.9,-11.1,29.29,North,0,3.1,3.1,25,0.00,,---,0.00,VWS V14.01,2013-12-06 01:46:00,
2013-12-05 19:47:00,18.9,-11.1,29.29,North,0,3.1,3.1,25,0.00,,---,0.00,VWS V14.01,2013-12-06 01:47:00,
2013-12-05 19:49:00,18.9,-11.1,29.29,North,0,3.6,3.6,25,0.00,,---,0.00,VWS V14.01,2013-12-06 01:49:00,
2013-12-05 19:51:00,18.9,-11.1,29.29,NNE,16,3.6,3.6,25,0.00,,---,0.00,VWS V14.01,2013-12-06 01:51:00,
2013-12-05 19:52:00,18.9,-11.1,29.29,NNE,16,3.6,3.6,25,0.00,,---,0.00,VWS V14.01,2013-12-06 01:52:00,
2013-12-05 19:54:00,18.9,-11.1,29.29,NNE,16,3.6,3.6,25,0.00,,---,0.00,VWS V14.01,2013-12-06 01:54:00,
2013-12-05 19:56:00,18.9,-11.1,29.29,NW,324,0.0,0.0,25,0.00,,---,0.00,VWS V14.01,2013-12-06 01:56:00,
2013-12-05 19:57:00,18.9,-11.1,29.29,NW,324,0.0,0.0,25,0.00,,---,0.00,VWS V14.01,2013-12-06 01:57:00,
2013-12-05 19:59:00,18.9,-11.1,29.29,NW,324,0.0,0.0,25,0.00,,---,0.00,VWS V14.01,2013-12-06 01:59:00,
2013-12-05 20:01:00,18.9,-11.1,29.29,NW,310,0.0,0.0,25,0.00,,---,0.00,VWS V14.01,2013-12-06 02:01:00,
2013-12-05 20:02:00,18.9,-11.1,29.29,NW,310,0.0,0.0,25,0.00,,---,0.00,VWS V14.01,2013-12-06 02:02:00,
2013-12-05 20:04:00,18.9,-11.1,29.29,North,1,2.2,2.2,25,0.00,,---,0.00,VWS V14.01,2013-12-06 02:04:00,
2013-12-05 20:06:00,18.9,-11.1,29.29,North,1,2.2,2.2,25,0.00,,---,0.00,VWS V14.01,2013-12-06 02:06:00,
2013-12-05 20:07:00,18.9,-11.1,29.29,North,1,2.2,2.2,25,0.00,,---,0.00,VWS V14.01,2013-12-06 02:07:00,
2013-12-05 20:08:00,18.9,-11.1,29.29,North,1,2.2,2.2,25,0.00,,---,0.00,VWS V14.01,2013-12-06 02:08:00,
2013-12-05 20:09:00,18.9,-11.1,29.29,North,1,2.2,2.2,25,0.00,,---,0.00,VWS V14.01,2013-12-06 02:09:00,
2013-12-05 20:10:00,18.9,-11.1,29.29,NNW,341,4.9,4.9,25,0.00,,---,0.00,VWS V14.01,2013-12-06 02:10:00,
2013-12-05 20:12:00,18.7,-11.3,29.29,NNW,341,4.9,4.9,25,0.00,,---,0.00,VWS V14.01,2013-12-06 02:12:00,
2013-12-05 20:13:00,18.7,-11.3,29.29,NNW,341,4.9,4.9,25,0.00,,---,0.00,VWS V14.01,2013-12-06 02:13:00,
2013-12-05 20:14:00,18.7,-11.3,29.29,NNW,341,4.9,4.9,25,0.00,,---,0.00,VWS V14.01,2013-12-06 02:14:00,
2013-12-05 20:15:00,18.7,-11.3,29.29,NNW,341,4.9,4.9,25,0.00,,---,0.00,VWS V14.01,2013-12-06 02:15:00,
2013-12-05 20:17:00,18.7,-11.3,29.29,NNW,328,3.1,3.1,25,0.00,,---,0.00,VWS V14.01,2013-12-06 02:17:00,
2013-12-05 20:18:00,18.7,-11.3,29.29,NNW,328,3.1,3.1,25,0.00,,---,0.00,VWS V14.01,2013-12-06 02:18:00,
2013-12-05 20:19:00,18.7,-11.3,29.29,NNW,328,3.1,3.1,25,0.00,,---,0.00,VWS V14.01,2013-12-06 02:19:00,
2013-12-05 20:20:00,18.7,-11.3,29.29,NNW,328,3.1,3.1,25,0.00,,---,0.00,VWS V14.01,2013-12-06 02:20:00,
2013-12-05 20:22:00,18.7,-11.3,29.29,NW,316,3.1,3.1,25,0.00,,---,0.00,VWS V14.01,2013-12-06 02:22:00,
2013-12-05 20:23:00,18.7,-11.3,29.29,NW,316,3.1,3.1,25,0.00,,---,0.00,VWS V14.01,2013-12-06 02:23:00,
2013-12-05 20:24:00,18.7,-11.3,29.29,North,357,2.7,2.7,25,0.00,,---,0.00,VWS V14.01,2013-12-06 02:24:00,
2013-12-05 20:25:00,18.7,-11.3,29.29,North,357,2.7,2.7,25,0.00,,---,0.00,VWS V14.01,2013-12-06 02:25:00,
2013-12-05 20:27:00,18.7,-11.3,29.29,North,357,2.7,2.7,25,0.00,,---,0.00,VWS V14.01,2013-12-06 02:27:00,
2013-12-05 20:28:00,18.7,-11.3,29.29,North,357,2.7,2.7,25,0.00,,---,0.00,VWS V14.01,2013-12-06 02:28:00,
2013-12-05 20:29:00,18.7,-11.3,29.29,North,357,2.7,2.7,25,0.00,,---,0.00,VWS V14.01,2013-12-06 02:29:00,
2013-12-05 20:31:00,18.7,-11.3,29.29,NNW,346,2.7,2.7,25,0.00,,---,0.00,VWS V14.01,2013-12-06 02:31:00,
2013-12-05 20:32:00,18.7,-11.3,29.29,NNW,346,2.7,2.7,25,0.00,,---,0.00,VWS V14.01,2013-12-06 02:32:00,
2013-12-05 20:33:00,18.7,-11.3,29.29,West,262,5.4,5.4,25,0.00,,---,0.00,VWS V14.01,2013-12-06 02:33:00,
2013-12-05 20:34:00,18.7,-11.3,29.29,West,262,5.4,5.4,25,0.00,,---,0.00,VWS V14.01,2013-12-06 02:34:00,
2013-12-05 20:36:00,18.7,-11.3,29.29,NNW,332,4.0,4.0,25,0.00,,---,0.00,VWS V14.01,2013-12-06 02:36:00,
2013-12-05 20:37:00,18.5,-11.4,29.29,North,9,2.7,4.0,25,0.00,,---,0.00,VWS V14.01,2013-12-06 02:37:00,
2013-12-05 20:39:00,18.5,-11.4,29.29,North,9,2.7,2.7,25,0.00,,---,0.00,VWS V14.01,2013-12-06 02:39:00,
2013-12-05 20:41:00,18.5,-11.4,29.29,North,9,2.7,2.7,25,0.00,,---,0.00,VWS V14.01,2013-12-06 02:41:00,
2013-12-05 20:43:00,18.5,-11.4,29.29,North,357,4.9,4.9,25,0.00,,---,0.00,VWS V14.01,2013-12-06 02:43:00,
2013-12-05 20:44:00,18.5,-11.4,29.29,NW,323,2.7,4.9,25,0.00,,---,0.00,VWS V14.01,2013-12-06 02:44:00,
2013-12-05 20:46:00,18.5,-11.4,29.29,NE,35,5.8,5.8,25,0.00,,---,0.00,VWS V14.01,2013-12-06 02:46:00,
2013-12-05 20:48:00,18.5,-11.4,29.29,North,0,3.1,3.1,25,0.00,,---,0.00,VWS V14.01,2013-12-06 02:48:00,
2013-12-05 20:49:00,18.5,-11.4,29.29,North,0,3.1,3.1,25,0.00,,---,0.00,VWS V14.01,2013-12-06 02:49:00,
2013-12-05 20:51:00,18.5,-11.4,29.29,NW,326,2.7,3.1,25,0.00,,---,0.00,VWS V14.01,2013-12-06 02:51:00,
2013-12-05 20:53:00,18.5,-11.4,29.29,NW,326,2.7,2.7,25,0.00,,---,0.00,VWS V14.01,2013-12-06 02:53:00,
2013-12-05 20:54:00,18.5,-11.4,29.29,NW,326,2.7,2.7,25,0.00,,---,0.00,VWS V14.01,2013-12-06 02:54:00,
2013-12-05 20:55:00,18.5,-11.4,29.29,NW,326,2.7,2.7,25,0.00,,---,0.00,VWS V14.01,2013-12-06 02:55:00,
2013-12-05 20:56:00,18.5,-11.4,29.29,North,0,2.2,2.7,25,0.00,,---,0.00,VWS V14.01,2013-12-06 02:56:00,
2013-12-05 20:58:00,18.5,-11.4,29.29,North,357,3.6,3.6,25,0.00,,---,0.00,VWS V14.01,2013-12-06 02:58:00,
2013-12-05 20:59:00,18.5,-11.4,29.29,North,357,3.6,3.6,25,0.00,,---,0.00,VWS V14.01,2013-12-06 02:59:00,
2013-12-05 21:01:00,18.5,-11.4,29.29,NNE,21,4.0,4.0,25,0.00,,---,0.00,VWS V14.01,2013-12-06 03:01:00,
2013-12-05 21:02:00,18.5,-11.4,29.29,NNE,21,4.0,4.0,25,0.00,,---,0.00,VWS V14.01,2013-12-06 03:02:00,
2013-12-05 21:04:00,18.5,-11.4,29.29,NNE,21,4.0,4.0,25,0.00,,---,0.00,VWS V14.01,2013-12-06 03:04:00,
2013-12-05 21:06:00,18.5,-11.4,29.29,North,1,7.2,7.2,25,0.00,,---,0.00,VWS V14.01,2013-12-06 03:06:00,
2013-12-05 21:07:00,18.5,-11.4,29.29,North,1,7.2,7.2,25,0.00,,---,0.00,VWS V14.01,2013-12-06 03:07:00,
2013-12-05 21:09:00,18.5,-11.4,29.29,North,0,2.7,2.7,25,0.00,,---,0.00,VWS V14.01,2013-12-06 03:09:00,
2013-12-05 21:10:00,18.5,-11.4,29.29,North,0,0.0,2.7,25,0.00,,---,0.00,VWS V14.01,2013-12-06 03:10:00,
2013-12-05 21:12:00,18.5,-11.4,29.29,North,0,0.0,0.0,25,0.00,,---,0.00,VWS V14.01,2013-12-06 03:12:00,
2013-12-05 21:14:00,18.5,-11.4,29.29,NNE,24,5.4,5.4,25,0.00,,---,0.00,VWS V14.01,2013-12-06 03:14:00,
2013-12-05 21:15:00,18.5,-11.4,29.29,NNE,24,5.4,5.4,25,0.00,,---,0.00,VWS V14.01,2013-12-06 03:15:00,
2013-12-05 21:16:00,18.5,-11.4,29.29,NNE,24,5.4,5.4,25,0.00,,---,0.00,VWS V14.01,2013-12-06 03:16:00,
2013-12-05 21:17:00,18.5,-11.4,29.29,NNE,24,5.4,5.4,25,0.00,,---,0.00,VWS V14.01,2013-12-06 03:17:00,
2013-12-05 21:18:00,18.5,-11.4,29.29,NNE,24,5.4,5.4,25,0.00,,---,0.00,VWS V14.01,2013-12-06 03:18:00,
2013-12-05 21:19:00,18.5,-11.4,29.29,North,357,0.0,5.4,25,0.00,,---,0.00,VWS V14.01,2013-12-06 03:19:00,
2013-12-05 21:20:00,18.5,-11.4,29.29,North,357,0.0,5.4,25,0.00,,---,0.00,VWS V14.01,2013-12-06 03:20:00,
2013-12-05 21:21:00,18.5,-11.4,29.29,North,357,0.0,0.0,25,0.00,,---,0.00,VWS V14.01,2013-12-06 03:21:00,
2013-12-05 21:23:00,18.5,-11.4,29.29,North,0,3.6,3.6,25,0.00,,---,0.00,VWS V14.01,2013-12-06 03:23:00,
2013-12-05 21:24:00,18.5,-11.4,29.29,North,0,3.6,3.6,25,0.00,,---,0.00,VWS V14.01,2013-12-06 03:24:00,
2013-12-05 21:25:00,18.5,-11.4,29.29,North,0,3.6,3.6,25,0.00,,---,0.00,VWS V14.01,2013-12-06 03:25:00,
2013-12-05 21:26:00,18.3,-11.6,29.29,NW,314,0.0,3.6,25,0.00,,---,0.00,VWS V14.01,2013-12-06 03:26:00,
2013-12-05 21:28:00,18.3,-11.6,29.29,North,7,4.0,4.0,25,0.00,,---,0.00,VWS V14.01,2013-12-06 03:28:00,
2013-12-05 21:29:00,18.3,-11.6,29.29,North,7,4.0,4.0,25,0.00,,---,0.00,VWS V14.01,2013-12-06 03:29:00,
2013-12-05 21:30:00,18.3,-11.6,29.29,North,0,3.1,4.0,25,0.00,,---,0.00,VWS V14.01,2013-12-06 03:30:00,
2013-12-05 21:31:00,18.3,-11.6,29.29,North,0,3.1,3.1,25,0.00,,---,0.00,VWS V14.01,2013-12-06 03:31:00,
2013-12-05 21:33:00,18.3,-11.6,29.29,NNW,344,4.9,4.9,25,0.00,,---,0.00,VWS V14.01,2013-12-06 03:33:00,
2013-12-05 21:34:00,18.3,-11.6,29.29,NNW,344,4.9,4.9,25,0.00,,---,0.00,VWS V14.01,2013-12-06 03:34:00,
2013-12-05 21:35:00,18.3,-11.6,29.29,NNW,344,4.9,4.9,25,0.00,,---,0.00,VWS V14.01,2013-12-06 03:35:00,
2013-12-05 21:36:00,18.3,-11.6,29.29,NNW,343,0.0,4.9,25,0.00,,---,0.00,VWS V14.01,2013-12-06 03:36:00,
2013-12-05 21:38:00,18.3,-11.6,29.29,NNW,343,0.0,0.0,25,0.00,,---,0.00,VWS V14.01,2013-12-06 03:38:00,
2013-12-05 21:40:00,18.3,-11.6,29.29,NNW,343,0.0,0.0,25,0.00,,---,0.00,VWS V14.01,2013-12-06 03:40:00,
2013-12-05 21:42:00,18.3,-11.6,29.29,NNW,333,2.2,2.2,25,0.00,,---,0.00,VWS V14.01,2013-12-06 03:42:00,
2013-12-05 21:44:00,18.3,-11.6,29.32,North,353,0.0,2.2,25,0.00,,---,0.00,VWS V14.01,2013-12-06 03:44:00,
2013-12-05 21:45:00,18.3,-11.6,29.32,North,353,0.0,0.0,25,0.00,,---,0.00,VWS V14.01,2013-12-06 03:45:00,
2013-12-05 21:47:00,18.3,-11.6,29.32,North,350,0.0,0.0,25,0.00,,---,0.00,VWS V14.01,2013-12-06 03:47:00,
2013-12-05 21:49:00,18.3,-11.6,29.32,ENE,61,2.2,2.2,25,0.00,,---,0.00,VWS V14.01,2013-12-06 03:49:00,
2013-12-05 21:50:00,18.3,-11.6,29.32,North,357,3.1,3.1,25,0.00,,---,0.00,VWS V14.01,2013-12-06 03:50:00,
2013-12-05 21:52:00,18.3,-11.6,29.32,North,357,3.1,3.1,25,0.00,,---,0.00,VWS V14.01,2013-12-06 03:52:00,
2013-12-05 21:54:00,18.3,-11.6,29.32,NW,317,3.6,3.6,25,0.00,,---,0.00,VWS V14.01,2013-12-06 03:54:00,
2013-12-05 21:55:00,18.3,-11.6,29.32,NW,317,3.6,3.6,25,0.00,,---,0.00,VWS V14.01,2013-12-06 03:55:00,
2013-12-05 21:56:00,18.3,-11.6,29.32,NW,317,3.6,3.6,25,0.00,,---,0.00,VWS V14.01,2013-12-06 03:56:00,
2013-12-05 21:58:00,18.3,-11.6,29.32,NW,317,3.6,3.6,25,0.00,,---,0.00,VWS V14.01,2013-12-06 03:58:00,
2013-12-05 21:59:00,18.3,-11.6,29.32,West,267,2.7,3.6,25,0.00,,---,0.00,VWS V14.01,2013-12-06 03:59:00,
2013-12-05 22:00:00,18.3,-11.6,29.32,West,267,2.7,2.7,25,0.00,,---,0.00,VWS V14.01,2013-12-06 04:00:00,
2013-12-05 22:01:00,18.3,-11.6,29.32,West,267,2.7,2.7,25,0.00,,---,0.00,VWS V14.01,2013-12-06 04:01:00,
2013-12-05 22:03:00,18.3,-11.6,29.32,NW,308,4.9,5.4,25,0.00,,---,0.00,VWS V14.01,2013-12-06 04:03:00,
2013-12-05 22:04:00,18.3,-11.6,29.32,NW,308,4.9,4.9,25,0.00,,---,0.00,VWS V14.01,2013-12-06 04:04:00,
2013-12-05 22:05:00,18.3,-11.6,29.32,NW,308,4.9,4.9,25,0.00,,---,0.00,VWS V14.01,2013-12-06 04:05:00,
2013-12-05 22:06:00,18.3,-11.6,29.32,NW,308,4.9,4.9,25,0.00,,---,0.00,VWS V14.01,2013-12-06 04:06:00,
2013-12-05 22:08:00,18.3,-11.6,29.32,NNW,328,2.7,2.7,25,0.00,,---,0.00,VWS V14.01,2013-12-06 04:08:00,
2013-12-05 22:10:00,18.3,-11.6,29.32,NNW,335,3.1,3.1,25,0.00,,---,0.00,VWS V14.01,2013-12-06 04:10:00,
2013-12-05 22:11:00,18.3,-11.6,29.32,NNW,335,3.1,3.1,25,0.00,,---,0.00,VWS V14.01,2013-12-06 04:11:00,
2013-12-05 22:13:00,18.3,-11.6,29.32,NNW,335,3.1,3.1,25,0.00,,---,0.00,VWS V14.01,2013-12-06 04:13:00,
2013-12-05 22:15:00,18.3,-11.6,29.32,North,0,5.4,5.4,25,0.00,,---,0.00,VWS V14.01,2013-12-06 04:15:00,
2013-12-05 22:16:00,18.3,-11.6,29.32,North,0,3.1,5.4,25,0.00,,---,0.00,VWS V14.01,2013-12-06 04:16:00,
2013-12-05 22:18:00,18.3,-11.6,29.32,North,353,0.0,0.0,25,0.00,,---,0.00,VWS V14.01,2013-12-06 04:18:00,
2013-12-05 22:20:00,18.3,-11.6,29.32,NNW,345,2.7,2.7,25,0.00,,---,0.00,VWS V14.01,2013-12-06 04:20:00,
2013-12-05 22:21:00,18.3,-11.6,29.32,NNW,345,2.7,2.7,25,0.00,,---,0.00,VWS V14.01,2013-12-06 04:21:00,
2013-12-05 22:23:00,18.3,-11.6,29.32,NNW,345,0.0,0.0,25,0.00,,---,0.00,VWS V14.01,2013-12-06 04:23:00,
2013-12-05 22:26:00,18.3,-11.6,29.32,NNW,345,0.0,0.0,25,0.00,,---,0.00,VWS V14.01,2013-12-06 04:26:00,
2013-12-05 22:29:00,18.3,-11.6,29.32,North,2,2.2,2.2,25,0.00,,---,0.00,VWS V14.01,2013-12-06 04:29:00,
2013-12-05 22:31:00,18.3,-11.6,29.32,NW,324,3.1,3.1,25,0.00,,---,0.00,VWS V14.01,2013-12-06 04:31:00,
2013-12-05 22:32:00,18.3,-11.6,29.32,NW,324,3.1,3.1,25,0.00,,---,0.00,VWS V14.01,2013-12-06 04:32:00,
2013-12-05 22:34:00,18.3,-11.6,29.32,NNE,29,4.9,4.9,25,0.00,,---,0.00,VWS V14.01,2013-12-06 04:34:00,
2013-12-05 22:36:00,18.3,-11.6,29.32,North,3,5.8,5.8,25,0.00,,---,0.00,VWS V14.01,2013-12-06 04:36:00,
2013-12-05 22:37:00,18.3,-11.6,29.32,NNW,333,4.9,5.8,25,0.00,,---,0.00,VWS V14.01,2013-12-06 04:37:00,
2013-12-05 22:39:00,18.3,-11.6,29.32,NNW,333,4.9,4.9,25,0.00,,---,0.00,VWS V14.01,2013-12-06 04:39:00,
2013-12-05 22:41:00,18.3,-11.6,29.32,NNW,333,4.9,4.9,25,0.00,,---,0.00,VWS V14.01,2013-12-06 04:41:00,
2013-12-05 22:42:00,18.3,-11.6,29.32,NNW,333,4.9,4.9,25,0.00,,---,0.00,VWS V14.01,2013-12-06 04:42:00,
2013-12-05 22:44:00,18.3,-11.6,29.32,NNW,329,4.0,4.0,25,0.00,,---,0.00,VWS V14.01,2013-12-06 04:44:00,
2013-12-05 22:46:00,18.3,-11.6,29.32,NW,320,5.4,5.4,25,0.00,,---,0.00,VWS V14.01,2013-12-06 04:46:00,
2013-12-05 22:47:00,18.3,-11.6,29.32,North,2,0.0,5.4,25,0.00,,---,0.00,VWS V14.01,2013-12-06 04:47:00,
2013-12-05 22:50:00,18.3,-11.6,29.32,North,1,2.7,3.6,25,0.00,,---,0.00,VWS V14.01,2013-12-06 04:50:00,
2013-12-05 22:51:00,18.3,-11.6,29.32,North,1,2.7,3.6,25,0.00,,---,0.00,VWS V14.01,2013-12-06 04:51:00,
2013-12-05 22:52:00,18.3,-11.6,29.32,North,1,2.7,2.7,25,0.00,,---,0.00,VWS V14.01,2013-12-06 04:52:00,
2013-12-05 22:56:00,18.3,-11.6,29.32,NNE,13,2.7,2.7,25,0.00,,---,0.00,VWS V14.01,2013-12-06 04:56:00,
2013-12-05 22:57:00,18.3,-11.6,29.32,NNE,13,2.7,2.7,25,0.00,,---,0.00,VWS V14.01,2013-12-06 04:57:00,
2013-12-05 23:01:00,18.3,-11.6,29.32,North,10,3.6,4.9,25,0.00,,---,0.00,VWS V14.01,2013-12-06 05:01:00,
2013-12-05 23:06:00,18.3,-11.6,29.32,North,1,3.1,3.1,25,0.00,,---,0.00,VWS V14.01,2013-12-06 05:06:00,
2013-12-05 23:11:00,18.3,-11.6,29.32,NW,316,0.0,0.0,25,0.00,,---,0.00,VWS V14.01,2013-12-06 05:11:00,
2013-12-05 23:16:00,18.3,-11.6,29.35,North,0,3.6,3.6,25,0.00,,---,0.00,VWS V14.01,2013-12-06 05:16:00,
2013-12-05 23:17:00,18.3,-11.6,29.35,North,0,3.6,3.6,25,0.00,,---,0.00,VWS V14.01,2013-12-06 05:17:00,
2013-12-05 23:21:00,18.3,-11.6,29.35,WNW,283,2.7,2.7,25,0.00,,---,0.00,VWS V14.01,2013-12-06 05:21:00,
2013-12-05 23:22:00,18.3,-11.6,29.35,North,353,2.7,2.7,25,0.00,,---,0.00,VWS V14.01,2013-12-06 05:22:00,
2013-12-05 23:26:00,18.3,-11.6,29.35,NNE,14,4.0,4.0,25,0.00,,---,0.00,VWS V14.01,2013-12-06 05:26:00,
2013-12-05 23:27:00,18.3,-11.6,29.35,North,1,4.0,4.0,25,0.00,,---,0.00,VWS V14.01,2013-12-06 05:27:00,
2013-12-05 23:31:00,18.3,-11.6,29.35,WNW,296,2.7,2.7,25,0.00,,---,0.00,VWS V14.01,2013-12-06 05:31:00,
2013-12-05 23:32:00,18.3,-11.6,29.35,WNW,296,2.7,2.7,25,0.00,,---,0.00,VWS V14.01,2013-12-06 05:32:00,
2013-12-05 23:36:00,18.1,-11.8,29.35,NNW,341,3.1,3.1,25,0.00,,---,0.00,VWS V14.01,2013-12-06 05:36:00,
2013-12-05 23:37:00,18.1,-11.8,29.35,NNW,341,3.1,3.1,25,0.00,,---,0.00,VWS V14.01,2013-12-06 05:37:00,
2013-12-05 23:38:00,18.1,-11.8,29.35,NNW,341,3.1,3.1,25,0.00,,---,0.00,VWS V14.01,2013-12-06 05:38:00,
2013-12-05 23:41:00,18.1,-11.8,29.35,NNE,20,7.2,7.2,25,0.00,,---,0.00,VWS V14.01,2013-12-06 05:41:00,
2013-12-05 23:42:00,18.1,-11.8,29.35,NNE,20,7.2,7.2,25,0.00,,---,0.00,VWS V14.01,2013-12-06 05:42:00,
2013-12-05 23:43:00,18.1,-11.8,29.35,NNE,20,7.2,7.2,25,0.00,,---,0.00,VWS V14.01,2013-12-06 05:43:00,
2013-12-05 23:46:00,18.1,-11.8,29.35,WNW,284,3.6,7.2,25,0.00,,---,0.00,VWS V14.01,2013-12-06 05:46:00,
2013-12-05 23:47:00,18.1,-11.8,29.35,WNW,284,3.6,3.6,25,0.00,,---,0.00,VWS V14.01,2013-12-06 05:47:00,
2013-12-05 23:48:00,18.1,-11.8,29.35,North,357,0.0,3.6,25,0.00,,---,0.00,VWS V14.01,2013-12-06 05:48:00,
2013-12-05 23:51:00,18.1,-11.8,29.35,North,353,3.6,3.6,25,0.00,,---,0.00,VWS V14.01,2013-12-06 05:51:00,
2013-12-05 23:52:00,18.1,-11.8,29.35,North,353,3.6,3.6,25,0.00,,---,0.00,VWS V14.01,2013-12-06 05:52:00,
2013-12-05 23:53:00,18.1,-11.8,29.35,North,2,0.0,3.6,25,0.00,,---,0.00,VWS V14.01,2013-12-06 05:53:00,
2013-12-05 23:54:00,18.1,-11.8,29.35,North,353,0.0,0.0,25,0.00,,---,0.00,VWS V14.01,2013-12-06 05:54:00,
2013-12-05 23:57:00,18.1,-11.8,29.32,North,357,3.6,3.6,25,0.00,,---,0.00,VWS V14.01,2013-12-06 05:57:00,
2013-12-05 23:58:00,18.1,-11.8,29.32,North,353,3.1,3.1,25,0.00,,---,0.00,VWS V14.01,2013-12-06 05:58:00,
2013-12-05 23:59:00,18.1,-11.8,29.32,North,353,3.1,3.1,25,0.00,,---,0.00,VWS V14.01,2013-12-06 05:59:00,